GFSNW_925_temp_072.txt.gz
Temp
5 5 5 6 7 6 7 8 8 7 8 8 8 8 11 13 13 13 14 14 11 9 10 11 11 11 11 11 13 12 11 10 10 12 12 12 14 14 13 10 12 10 10 14
5 4 5 6 6 6 7 7 7 7 8 8 9 11 11 13 13 13 14 14 14 13 11 11 11 11 12 11 12 12 12 9 7 10 12 13 13 14 14 12 10 10 11 13
4 4 5 7 6 7 7 7 7 7 7 8 9 10 10 12 13 13 14 14 14 14 14 12 11 11 12 12 12 13 12 10 10 9 10 11 12 13 14 12 9 12 12 14
4 4 6 8 7 8 7 7 7 8 7 7 7 10 10 11 11 13 13 13 13 14 13 13 12 12 12 12 12 12 11 10 9 12 12 13 13 13 13 11 12 12 14 13
4 4 6 7 6 8 7 7 6 6 5 7 8 9 9 11 11 12 12 12 11 12 11 12 12 12 12 12 12 12 10 7 9 8 12 11 12 13 13 13 13 14 14 14
4 5 7 7 7 7 6 6 7 7 7 6 8 9 10 12 10 11 11 11 10 10 10 10 11 12 11 12 11 11 10 8 6 8 9 11 11 12 12 13 13 13 13 13
5 6 6 6 6 7 8 8 6 7 7 7 9 10 11 10 10 10 10 10 11 10 10 11 11 11 10 11 10 11 10 9 6 6 9 8 11 12 12 11 10 10 10 10
8 7 6 6 6 6 9 8 7 5 6 7 8 8 8 9 8 9 9 9 9 9 10 10 10 9 11 11 11 12 10 9 8 8 6 10 12 12 12 12 10 9 9 8
7 6 5 6 6 6 8 7 8 5 6 4 4 7 8 7 7 8 9 10 9 10 9 10 9 9 10 10 11 11 10 9 9 8 8 10 11 12 12 12 9 8 8 7
6 6 5 6 6 6 8 7 7 6 2 1 4 6 7 6 6 6 8 9 10 9 8 9 9 8 10 9 9 10 9 10 8 8 7 9 10 10 11 10 9 7 7 6
6 5 6 5 6 6 8 6 7 6 1 1 2 3 5 5 6 7 6 8 8 7 9 9 8 8 9 9 9 9 9 7 8 8 9 9 9 10 10 7 6 6 6 6
6 5 5 5 6 6 7 6 5 6 1 2 3 3 4 4 4 4 4 6 6 6 7 7 6 8 7 7 8 9 9 8 8 8 8 7 4 6 5 5 5 5 5 5
5 5 5 5 5 6 7 6 5 5 0 2 2 2 4 5 5 5 5 4 5 5 4 5 6 8 6 8 7 9 8 8 8 8 9 5 4 4 4 4 5 4 4 4
4 5 5 5 5 6 7 7 6 7 2 2 2 4 4 4 6 6 5 5 4 3 3 4 5 7 5 6 7 7 7 8 7 6 4 4 4 4 4 4 4 4 3 3
4 4 4 4 5 6 7 7 7 7 4 2 2 3 4 4 6 6 6 5 3 3 3 2 4 3 5 3 4 5 6 7 6 6 5 4 4 4 3 3 3 2 2 2
4 4 4 5 5 6 8 5 7 7 6 1 2 3 3 4 5 4 3 3 2 2 3 2 2 3 2 4 5 5 4 4 4 4 5 4 4 3 3 2 2 2 1 1
4 4 4 4 5 6 5 5 5 6 7 1 1 2 2 3 3 2 2 2 1 2 2 2 2 2 1 3 4 5 4 3 3 4 3 4 4 3 2 1 2 2 1 1
4 4 4 5 6 6 5 4 5 6 5 0 -0 2 1 3 2 2 1 2 1 1 1 2 2 2 2 3 4 4 3 2 3 3 3 3 3 2 1 1 1 -0 -1 -1
4 4 5 5 5 4 5 5 6 6 5 1 -2 -0 1 2 2 2 2 1 3 1 2 3 3 3 2 5 4 4 4 5 4 3 3 2 2 1 -0 -0 -1 -1 -1 -1
5 5 4 3 3 3 5 6 3 0 -1 -1 -2 -3 1 1 1 3 1 3 1 -1 3 2 3 3 3 2 2 2 3 4 3 -2 0 1 -2 -0 -1 -1 -2 -2 -2 -1
5 3 2 2 4 5 2 1 1 1 0 -1 -3 -2 1 1 1 3 3 4 4 5 4 2 1 5 3 2 2 2 1 2 2 2 1 0 -1 -3 -2 -2 -1 -1 -2 -2
6 4 3 4 2 1 3 1 1 1 1 -0 0 1 0 1 1 1 2 2 4 3 2 4 4 1 1 1 3 3 1 1 1 1 0 0 -0 -1 -2 -2 -3 -2 -2 -2
5 3 1 2 -0 3 2 3 -0 1 -0 -2 -1 -1 -0 1 1 2 3 0 1 3 4 3 2 1 2 1 -2 1 1 1 0 0 0 -0 -1 -1 -1 -2 -1 -1 -2 -2
2 1 4 3 2 0 1 2 0 -1 -1 0 -1 -1 0 1 0 1 -1 3 3 -1 -1 -0 -2 1 1 0 0 0 -0 -1 -1 -2 -1 -3 -2 -2 -1 -2 -1 -2 -3 -2
2 1 6 -2 0 0 -2 -5 -1 -2 0 -1 -1 -1 -0 -2 -0 1 1 1 -3 -1 -0 -1 -2 -1 -1 -0 -0 -1 -2 -6 -6 -2 -3 -2 -2 -3 -3 -2 -2 -2 -2 -2
-1 -3 -2 0 -0 -1 -2 -2 -0 -3 -1 -2 -1 -2 -2 -1 -0 -0 -2 -1 -1 -0 -3 -2 -2 -2 -1 -1 -1 -2 -1 -1 -1 -0 -1 -1 -2 -3 -3 -3 -3 -2 -2 -2
-2 -2 -1 -0 -4 -3 -2 0 0 -1 0 -1 -1 0 1 -1 -2 0 -2 -1 -1 -2 -3 -4 -2 -0 -1 -2 -2 -1 -0 -1 -1 -1 -1 -1 -1 -2 -4 -6 -3 -3 -3 -2

GFSNW_925_temp_075.txt.gz
Temp
5 5 5 5 5 6 6 7 7 7 8 7 6 5 9 12 12 12 13 11 11 9 9 12 11 11 10 10 11 11 11 9 10 12 12 12 13 13 12 10 12 9 9 12
5 5 5 5 5 6 7 7 7 6 7 7 6 10 11 12 12 13 13 13 12 11 10 11 10 11 11 11 11 12 12 8 6 9 11 13 13 14 12 10 9 9 10 12
5 5 5 5 5 6 7 7 7 7 7 6 8 10 11 12 13 13 14 13 13 12 12 11 10 11 12 11 12 13 12 9 10 9 11 11 13 13 13 12 8 11 12 13
5 5 5 5 5 6 7 6 7 8 7 7 7 10 11 12 12 12 13 13 13 13 12 11 11 11 11 12 11 12 10 9 8 11 11 12 12 13 12 10 12 12 14 13
5 5 5 5 5 7 7 7 6 6 5 6 7 9 10 11 11 11 12 12 12 12 12 12 11 11 11 11 11 11 9 7 8 8 10 10 12 12 12 12 12 13 12 13
5 5 5 6 7 6 6 5 6 5 7 5 8 9 9 11 10 10 10 10 10 10 10 10 10 11 10 11 11 10 9 7 6 8 9 11 10 11 12 12 12 12 11 12
5 7 7 8 8 7 7 6 5 6 6 6 9 10 11 10 10 10 9 10 10 10 10 10 12 11 9 9 9 10 9 8 6 5 8 9 11 11 11 11 9 9 9 9
7 8 8 7 6 6 8 7 5 5 5 6 8 9 9 9 7 8 8 8 8 8 10 9 10 9 11 10 10 10 9 8 7 7 6 9 11 11 10 11 10 9 8 8
7 7 6 7 7 7 7 6 6 4 6 4 3 7 9 9 7 7 8 9 8 9 8 9 9 9 10 10 10 10 10 8 8 8 8 10 11 11 11 11 9 8 7 7
7 6 6 6 7 7 8 7 5 4 2 1 2 6 8 6 6 6 8 9 9 8 7 9 9 8 9 9 9 10 10 10 10 8 6 9 9 10 10 10 10 7 6 6
6 6 6 6 6 6 8 6 6 5 1 1 2 2 5 5 6 7 6 8 8 7 8 9 8 8 8 8 9 8 8 7 7 8 9 8 7 10 10 7 5 6 6 5
6 6 6 6 5 6 7 7 5 5 1 1 3 3 3 3 4 4 3 6 6 6 6 6 6 8 6 7 8 8 9 8 8 8 8 5 4 6 4 5 5 5 5 4
5 6 6 6 6 6 7 7 5 5 1 1 2 2 4 5 4 5 5 4 5 5 3 4 5 8 6 7 7 8 8 7 7 8 7 5 4 4 4 4 4 4 3 3
5 5 6 5 5 6 7 7 6 6 1 2 2 3 3 4 5 5 5 4 4 3 2 3 5 7 5 5 6 6 6 7 6 6 4 4 4 4 4 3 3 3 3 3
5 5 5 5 6 6 7 7 6 6 5 2 2 3 4 4 5 5 6 5 3 3 3 2 4 3 4 2 4 5 4 6 6 6 5 4 4 3 3 3 3 2 2 1
5 5 5 5 6 6 8 5 6 7 6 1 2 2 2 4 4 4 3 2 1 1 3 2 1 2 2 4 5 4 3 3 3 4 4 3 3 2 3 3 2 2 1 0
5 5 4 5 5 5 5 5 5 6 6 1 1 1 2 3 2 1 2 2 0 1 1 2 2 2 0 3 5 4 3 3 3 3 3 4 3 3 2 1 1 1 0 1
4 4 4 5 6 6 5 4 5 6 4 -0 0 2 1 3 2 3 0 2 1 0 1 1 2 2 1 3 4 3 3 3 3 3 3 3 2 2 1 0 -0 -1 -1 -1
4 4 5 5 5 4 5 5 5 6 5 0 -1 1 1 1 1 1 2 1 3 1 2 2 2 2 2 5 3 3 2 4 4 3 3 2 2 0 -0 -1 -1 -1 -2 -2
4 4 4 3 3 4 5 4 3 0 -0 -1 -0 -1 1 0 0 1 1 2 2 -1 2 1 3 2 3 2 2 2 2 3 3 -2 -0 1 -3 -1 -1 -1 -2 -3 -3 -2
4 2 1 3 4 4 2 1 2 1 1 0 -2 -1 0 1 0 1 2 1 2 1 1 2 -0 2 3 1 1 1 1 2 2 2 1 1 -1 -3 -3 -2 -2 -2 -2 -3
5 4 4 4 1 -0 2 -2 0 2 2 -1 0 0 1 0 1 1 1 1 2 2 2 1 1 2 1 1 1 1 -0 1 1 1 0 -0 -1 -1 -2 -3 -3 -3 -2 -2
5 3 1 2 -0 2 1 2 -0 -1 -0 -1 -1 -1 -0 0 1 0 -1 -0 0 3 4 1 1 1 1 1 -2 1 1 1 0 -0 -0 -0 -1 -1 -2 -3 -2 -2 -3 -2
2 2 5 3 0 -1 -0 1 1 0 -0 -1 -2 -1 -0 0 -0 0 -1 3 1 1 -2 0 -2 1 1 0 -0 -0 -0 -0 -1 -3 -2 -2 -3 -2 -1 -1 -2 -3 -4 -3
2 1 5 -1 0 -1 -2 -4 -2 -3 -0 -1 -2 -2 -0 -2 -0 1 2 2 -2 -0 1 -1 -2 -2 -1 -0 -1 -1 -2 -5 -6 -3 -4 -3 -2 -3 -2 -1 -2 -3 -4 -4
-2 -4 -2 -0 -0 -0 -3 -5 -3 -4 -1 -2 -1 -1 -1 -1 -1 -0 -1 0 0 0 -3 -2 -3 -3 -1 -1 -1 -2 -2 -2 -2 -2 -2 -2 -1 -2 -3 -3 -2 -3 -3 -4
-2 -2 -1 -0 -1 -1 -2 -1 -1 -2 -1 -0 -1 1 1 -1 -2 -0 -3 -1 -1 -3 -4 -5 -2 -0 -0 -2 -2 -1 -1 -2 -2 -2 -1 -2 -2 -3 -4 -7 -3 -3 -3 -4

GFSNW_925_temp_078.txt.gz
Temp
5 5 5 6 5 5 6 7 6 6 6 7 8 7 7 11 11 12 12 11 10 9 9 12 10 10 10 9 10 11 10 9 11 12 12 11 12 13 11 11 12 8 9 13
5 5 5 5 5 5 6 6 7 6 7 8 8 7 10 11 12 12 12 11 11 10 10 10 10 10 11 10 10 10 11 8 6 9 11 12 13 13 11 10 9 9 9 12
5 5 5 5 5 5 6 6 6 7 7 6 7 9 10 11 12 12 12 12 11 11 11 10 10 11 11 10 11 12 11 8 9 9 11 11 12 13 12 11 7 11 11 11
5 5 5 5 5 5 7 6 6 6 7 7 7 8 10 11 11 12 12 12 12 12 11 11 10 11 11 11 11 10 10 9 7 9 10 11 12 12 12 10 11 12 12 12
5 5 5 5 5 6 7 6 6 5 5 7 7 9 11 11 10 11 12 11 10 12 11 11 10 11 11 11 11 10 8 6 8 7 9 10 12 11 11 12 12 12 11 13
5 5 6 6 6 6 6 5 6 7 7 6 7 9 11 11 10 10 9 11 10 10 10 10 10 9 8 10 11 9 8 7 6 8 8 10 10 12 12 11 12 12 11 12
7 8 8 7 6 7 8 5 6 7 7 5 7 10 11 10 10 10 8 9 10 10 9 9 11 10 8 8 8 9 9 7 5 6 8 9 11 10 10 11 9 9 9 8
7 9 9 7 7 7 9 6 6 4 4 5 9 9 9 8 7 7 8 7 7 8 9 9 9 8 11 9 9 8 8 7 6 7 6 10 11 10 10 11 11 9 7 8
7 6 5 6 7 8 9 6 5 3 5 5 3 8 9 8 7 7 8 8 8 8 7 8 9 9 10 10 10 10 9 8 8 8 8 11 11 10 10 11 9 8 8 7
7 6 7 7 7 8 9 4 6 4 1 0 2 6 7 7 7 5 7 9 10 8 7 9 8 7 9 9 10 9 9 9 10 10 6 8 9 9 9 11 10 7 7 6
7 7 6 7 8 8 9 5 5 4 0 2 1 2 5 6 7 7 6 8 8 7 8 8 8 8 7 8 8 8 9 7 7 9 10 7 5 9 10 7 5 6 6 5
7 6 6 7 8 8 8 7 5 5 1 1 2 2 3 3 3 4 3 6 6 6 6 6 6 7 5 6 8 7 8 8 8 7 8 5 4 5 4 4 4 5 5 4
6 6 5 6 7 7 8 7 6 6 1 1 1 2 4 4 4 4 6 4 4 5 3 4 5 9 5 7 6 8 8 6 7 8 7 6 4 4 4 4 4 3 3 3
6 5 6 7 7 7 7 7 6 5 2 2 2 3 4 4 5 5 5 4 4 2 2 3 5 7 4 5 6 6 6 6 6 6 5 4 3 3 4 3 3 3 2 2
5 5 5 6 6 6 7 7 6 6 5 2 2 2 3 4 5 5 5 5 3 2 3 2 4 3 4 2 3 4 4 6 6 6 5 5 5 3 3 3 3 2 2 1
5 5 5 5 6 6 7 4 6 6 6 2 1 1 2 3 4 3 2 2 1 1 3 2 1 1 2 4 4 5 3 2 3 5 3 3 3 2 2 2 2 1 1 0
4 4 5 5 6 6 5 4 5 5 5 1 -1 -0 2 2 2 1 1 1 0 1 1 2 2 2 0 3 5 4 2 3 3 3 3 4 3 2 2 1 1 0 0 -0
4 5 4 5 6 6 5 4 5 5 4 0 -0 0 0 3 2 3 -0 2 1 0 1 1 2 2 1 3 4 3 3 3 3 3 2 2 1 1 1 -0 -1 -1 -2 -2
4 4 5 6 6 4 4 5 5 5 4 -0 -1 0 -0 1 1 1 2 1 4 1 2 2 2 2 2 5 3 2 2 3 4 2 2 2 2 1 -0 -1 -1 -2 -2 -2
4 4 4 3 3 4 5 5 2 1 0 -0 -2 -3 -0 -0 0 1 1 2 2 1 3 1 2 2 3 2 2 2 2 2 2 -2 0 0 -3 -1 -1 -1 -3 -3 -3 -3
4 2 1 2 3 4 1 1 1 1 1 1 -1 -1 1 1 1 1 1 -0 0 0 2 2 -1 1 2 1 1 0 0 1 2 2 1 1 -1 -4 -3 -2 -2 -2 -2 -3
4 4 3 3 1 -0 2 -1 0 0 2 -1 -0 0 0 0 0 1 1 0 -1 2 0 -1 -1 1 1 0 1 0 -1 1 1 1 0 -0 -1 -1 -2 -3 -3 -3 -2 -2
5 3 1 1 -1 1 1 2 -1 0 -0 -0 -0 -0 -0 -0 1 -0 -1 -1 0 1 3 -1 -0 0 1 -0 -2 1 -0 0 0 0 -0 -0 -1 -1 -2 -3 -2 -2 -3 -2
2 2 3 1 -1 -0 1 1 1 -0 -0 -1 -1 -1 -0 0 -0 -0 -2 3 2 -0 -2 -0 -3 -0 1 -1 -1 -0 0 -0 -1 -3 -2 -3 -2 -2 -1 -2 -2 -3 -4 -3
2 -0 2 -1 -0 -2 -3 -4 -3 -2 -1 -2 -2 -2 -1 -2 -1 1 2 2 -1 -0 1 -1 -3 -3 -2 -1 -1 -1 -2 -6 -6 -3 -5 -4 -3 -4 -4 -2 -2 -3 -3 -4
-1 -3 -3 -1 -2 -1 -1 -4 -2 -3 -2 -3 -1 -2 -3 -1 -1 -1 1 0 1 1 -3 -3 -3 -3 -2 -1 -1 -2 -2 -3 -3 -3 -3 -3 -4 -4 -4 -3 -3 -3 -3 -4
-0 -4 -2 -0 -1 0 -0 -1 -1 -2 -0 -0 -2 -0 2 -2 -3 1 -2 -0 -1 -4 -5 -5 -3 -1 -2 -2 -2 -2 -2 -3 -4 -4 -4 -4 -4 -5 -6 -8 -4 -4 -4 -4

GFSNW_925_temp_084.txt.gz
Temp
5 5 6 6 6 6 6 6 6 6 6 6 7 8 9 10 11 12 12 12 12 13 12 13 13 12 12 12 12 14 13 15 14 14 14 13 13 15 15 17 16 15 18 16
5 5 6 6 6 6 6 6 5 6 6 8 8 10 11 9 11 13 13 12 13 12 12 13 12 12 13 12 13 13 14 14 14 15 15 15 15 15 15 15 16 14 18 16
7 7 6 6 7 7 7 7 6 5 7 7 10 10 9 10 12 13 13 12 13 13 13 13 12 13 13 13 13 11 13 13 13 15 13 13 15 15 15 16 16 17 16 14
8 8 7 6 7 7 7 7 7 7 8 8 10 9 9 12 12 13 13 13 13 14 13 13 13 13 13 13 12 12 14 12 11 12 12 13 14 14 15 14 15 16 15 16
8 8 7 7 8 7 7 8 8 7 8 9 10 10 11 12 11 12 13 13 12 14 14 14 13 13 13 13 14 13 12 12 11 12 13 14 13 14 14 15 15 15 16 15
8 7 7 7 8 7 7 6 7 11 8 9 11 11 11 12 12 11 10 12 13 13 11 12 12 13 12 12 13 13 13 12 12 13 12 14 15 13 13 14 14 14 16 14
7 8 8 7 7 8 8 6 8 10 9 10 10 10 11 10 10 12 10 11 13 11 11 11 13 14 13 14 12 12 13 12 11 13 14 14 13 12 12 13 12 12 12 12
7 7 7 8 8 9 10 7 8 10 9 9 10 10 10 10 10 9 9 9 9 10 11 13 13 13 14 13 12 13 13 13 12 14 14 13 12 12 12 13 13 11 12 11
6 7 8 9 9 9 10 6 6 9 11 8 5 9 10 12 11 11 10 10 9 11 12 13 12 13 12 13 13 13 13 13 14 13 14 15 13 12 11 12 14 11 11 11
7 7 8 8 9 9 9 6 6 7 8 4 5 9 9 9 10 11 10 10 12 11 13 13 13 12 10 13 12 12 13 13 13 13 13 14 12 11 11 13 14 10 10 11
6 6 7 7 8 9 9 5 6 6 6 4 3 4 7 8 9 12 10 11 11 12 13 12 12 12 11 11 11 12 12 13 13 12 12 13 10 10 13 12 9 9 9 9
8 7 6 7 7 8 8 6 6 6 6 4 2 3 3 3 4 7 7 10 10 10 12 11 11 12 10 11 13 9 12 12 13 13 14 10 9 9 8 8 9 8 9 7
6 7 7 6 7 7 9 7 6 6 6 5 5 5 3 3 3 3 9 8 7 8 7 10 11 12 11 13 12 11 10 9 11 11 10 10 9 7 7 7 7 7 6 6
5 6 6 5 6 7 8 8 6 6 6 9 6 3 4 4 4 4 4 5 5 6 6 10 11 12 8 11 10 10 11 9 11 11 10 8 8 8 8 6 5 5 5 5
5 5 7 6 6 6 7 7 6 6 6 8 5 3 4 3 4 4 4 5 7 8 9 10 11 8 8 7 7 10 9 11 12 13 10 10 9 7 6 6 5 5 5 4
5 5 6 6 6 6 7 7 6 6 5 5 6 3 4 3 3 3 4 4 5 6 9 8 6 4 7 9 10 11 8 7 8 10 7 7 5 5 5 5 4 4 4 3
5 5 5 6 6 6 6 6 5 5 5 5 4 5 4 2 3 3 5 3 4 6 5 6 7 5 5 7 10 11 7 7 6 6 6 6 5 6 4 4 3 2 2 2
5 5 5 6 6 6 5 4 5 5 5 3 4 4 4 3 5 6 3 6 5 4 5 4 6 4 5 7 9 6 5 5 5 5 5 5 4 3 3 2 2 3 3 3
5 4 5 5 6 5 4 4 4 5 4 5 4 6 6 3 3 4 5 4 8 3 6 5 5 7 7 10 8 6 5 6 6 4 4 3 4 4 3 2 3 2 3 2
5 5 5 5 3 3 5 4 4 4 3 2 5 2 5 4 4 4 5 4 6 6 5 3 4 7 8 6 6 6 5 5 4 2 3 2 2 2 3 3 3 2 2 1
5 3 4 3 3 4 3 4 4 4 5 3 2 3 4 3 5 6 4 5 3 5 5 5 6 6 6 4 4 3 4 4 4 4 4 3 3 2 2 2 1 1 -0 -0
5 4 3 3 3 3 4 3 3 3 5 2 3 3 3 2 2 5 3 4 3 6 3 4 6 7 4 3 3 2 3 3 3 2 3 2 1 1 0 -0 -1 -2 -2 -2
5 4 2 3 2 3 4 4 4 3 3 2 2 3 3 2 3 3 3 3 4 3 3 5 6 4 3 2 1 1 1 2 2 1 1 0 -0 -1 -1 -1 -1 -1 -2 -2
3 3 3 4 3 3 3 4 4 3 2 1 2 2 3 3 4 3 3 4 4 2 2 6 5 3 3 2 2 1 1 1 1 -2 -3 -3 -3 -3 -3 -3 -3 -4 -3 -3
3 2 3 3 3 0 0 -1 -1 1 1 2 2 2 3 2 2 3 3 2 2 3 6 6 3 1 1 1 1 1 0 -2 -2 -3 -4 -5 -5 -5 -4 -4 -5 -5 -5 -5
1 -0 1 -0 0 0 -0 -1 0 0 1 1 2 3 2 4 3 2 3 3 5 7 3 2 1 -0 0 0 0 -0 -1 -2 -3 -4 -5 -6 -6 -6 -7 -7 -6 -6 -6 -6
2 1 -0 1 0 3 2 2 2 1 2 4 3 3 6 1 2 3 3 4 6 3 0 0 0 0 -0 -1 -1 -2 -2 -3 -4 -6 -6 -7 -7 -7 -7 -7 -7 -8 -7 -7

GFSNW_925_temp_087.txt.gz
Temp
7 7 7 6 6 7 8 8 6 5 7 7 7 9 8 10 12 14 14 15 15 16 15 15 15 13 14 14 14 15 16 16 16 16 17 16 15 17 18 17 18 19 19 15
8 8 8 7 7 7 9 6 6 6 7 10 9 10 10 9 12 14 15 14 15 15 15 14 15 15 15 15 15 15 16 17 16 17 16 16 17 18 18 18 19 18 19 16
8 8 8 7 8 8 9 9 7 6 7 9 12 12 9 10 14 14 15 14 15 15 15 16 15 15 15 15 15 12 14 16 15 15 14 15 16 17 18 18 17 18 18 15
8 8 8 7 8 8 9 10 8 9 9 11 13 12 10 14 14 15 15 15 15 16 15 16 15 15 16 16 14 15 16 14 12 15 15 15 16 16 17 16 18 18 18 18
7 7 7 8 7 7 10 12 11 11 12 12 14 12 14 14 14 14 15 15 15 17 15 16 15 16 16 15 17 16 16 14 14 13 16 16 15 16 17 16 17 17 18 17
6 7 8 8 8 8 11 9 10 14 11 13 14 12 13 13 14 13 13 15 15 14 13 14 15 15 15 15 15 16 15 14 13 15 15 16 16 15 15 16 16 16 17 16
7 8 8 9 9 9 10 9 13 14 12 14 13 13 13 13 13 14 13 13 15 13 13 14 16 16 16 16 16 16 16 15 14 14 15 15 14 14 14 14 15 15 15 14
7 8 8 8 9 9 8 7 11 14 13 13 13 13 13 13 13 12 12 12 12 13 14 15 15 15 15 15 15 15 16 16 15 15 17 16 14 14 14 14 15 14 14 13
8 8 8 8 8 9 7 6 7 13 13 12 11 13 13 15 14 13 12 13 12 13 15 15 15 16 14 15 15 15 15 16 16 16 15 16 15 14 13 14 15 14 13 13
8 8 8 8 8 8 7 6 6 10 11 9 8 13 13 12 13 14 13 13 14 13 15 15 15 15 13 15 14 14 15 15 15 16 15 16 14 13 13 14 14 13 13 13
6 7 8 8 8 8 8 6 6 8 10 7 6 7 11 11 12 15 13 13 13 14 14 14 15 15 14 14 14 14 14 15 15 15 14 14 13 12 14 13 12 12 12 12
6 6 6 8 8 8 9 8 7 6 9 7 5 4 4 5 6 10 11 12 13 14 14 14 14 14 14 14 16 13 14 14 15 15 15 13 13 13 11 11 12 11 11 10
6 6 6 6 7 8 8 7 7 7 9 7 7 8 5 4 4 4 11 12 10 11 10 13 14 13 14 15 15 14 13 12 13 13 15 13 13 11 10 10 10 9 9 9
6 6 6 6 6 8 8 7 7 7 9 10 9 5 6 4 4 4 5 7 7 9 10 12 13 13 12 14 12 13 14 12 13 13 14 12 12 11 11 9 8 8 7 7
5 5 6 6 6 7 7 7 6 6 7 9 9 6 5 4 5 5 6 7 9 11 11 11 13 11 11 11 10 12 12 14 13 15 14 13 12 10 10 9 7 7 7 7
5 5 6 6 6 7 7 9 5 6 6 7 8 6 6 5 5 6 6 7 8 9 11 12 10 7 9 11 13 15 14 13 14 13 10 10 8 8 8 8 7 6 6 6
5 5 5 6 6 6 8 8 6 6 6 7 7 7 6 4 5 6 7 6 7 8 9 9 10 8 7 10 12 15 13 11 10 9 8 8 7 8 7 6 6 4 4 4
5 5 5 5 6 6 7 5 5 6 6 6 6 7 6 4 7 8 6 8 8 7 9 7 8 7 8 9 12 11 10 9 8 8 8 7 7 6 5 5 5 4 5 5
5 5 5 5 5 7 5 4 5 5 6 7 6 7 8 5 6 6 7 7 8 6 8 8 7 9 8 11 12 10 8 7 8 7 6 6 6 6 5 5 5 4 5 5
5 5 6 7 4 5 4 4 6 6 5 5 6 6 6 6 6 7 7 7 9 7 8 5 6 8 11 11 10 10 9 8 6 3 4 4 3 4 5 5 5 4 4 3
5 6 6 3 4 4 6 6 6 7 6 6 5 6 7 5 7 9 7 7 7 7 7 6 8 8 10 9 9 7 8 6 6 6 5 5 4 3 3 4 3 3 2 1
5 5 4 4 5 5 5 6 5 5 8 4 5 5 6 5 5 7 6 6 5 7 5 6 7 9 6 6 6 5 6 6 5 5 3 3 3 2 2 1 -1 -1 -1 -2
5 5 3 5 4 5 6 6 7 6 5 4 4 4 5 4 4 5 5 5 6 5 5 7 9 7 6 4 3 3 4 4 4 3 2 1 1 0 0 -0 -0 -1 -1 -1
5 4 5 5 5 5 7 8 7 5 4 4 4 4 5 5 4 6 4 6 5 5 4 7 8 6 5 4 3 2 2 3 1 -1 -2 -2 -2 -2 -1 -2 -3 -3 -3 -3
3 3 5 5 6 4 3 2 3 3 4 3 3 4 5 4 4 5 5 4 4 5 7 8 6 4 3 3 3 3 2 0 -1 -2 -3 -4 -4 -3 -3 -4 -5 -4 -5 -5
2 2 3 3 3 4 3 2 3 2 3 3 4 4 4 5 5 4 4 5 6 8 5 5 3 2 3 2 3 3 1 0 -1 -3 -4 -5 -5 -5 -5 -6 -5 -6 -6 -6
3 3 3 4 3 5 5 5 5 3 4 5 5 4 6 3 4 5 6 5 7 4 4 3 3 2 2 2 1 -0 -1 -1 -2 -3 -5 -5 -6 -7 -6 -5 -6 -7 -7 -7

GFSNW_925_temp_090.txt.gz
Temp
8 8 8 8 8 8 8 8 7 5 7 7 7 8 9 10 12 15 15 15 16 15 15 15 14 14 14 15 14 14 15 14 13 16 16 16 15 16 16 12 14 14 12 12
8 8 8 8 8 8 8 6 6 7 7 9 9 10 9 10 14 15 15 15 15 15 15 14 15 15 15 15 15 14 14 13 11 14 15 16 16 16 16 17 15 14 12 12
7 7 7 8 9 9 10 8 7 8 8 9 11 10 10 12 14 15 15 15 16 16 16 16 15 15 15 15 15 12 12 14 12 11 13 14 14 15 16 14 11 14 13 12
8 8 8 8 8 9 9 11 9 10 9 11 13 12 12 14 14 15 16 15 15 16 16 16 15 16 16 15 13 14 14 12 10 15 15 15 15 15 15 14 15 13 14 14
8 8 8 8 8 9 10 11 9 10 12 14 14 13 14 14 14 13 15 15 15 15 14 14 14 15 15 14 16 16 15 11 13 10 16 16 14 14 15 15 15 16 15 14
9 9 9 9 9 9 12 11 12 11 11 13 14 13 13 14 14 13 13 13 15 13 12 13 14 15 15 15 14 14 14 12 10 12 14 15 13 13 13 15 14 14 13 13
8 9 10 10 10 9 10 9 10 12 12 13 13 14 14 13 13 13 13 12 14 12 13 13 13 16 16 16 15 15 14 14 11 9 12 11 13 14 14 13 14 14 13 13
8 9 9 10 10 10 8 7 8 11 12 12 13 14 13 13 13 12 12 12 12 12 12 13 14 14 15 15 15 14 14 14 11 9 10 14 13 13 13 12 13 13 13 12
7 7 8 9 10 9 9 7 8 9 12 10 11 13 14 13 13 12 12 12 12 12 12 13 14 13 14 14 15 15 15 14 12 12 11 14 13 13 13 13 11 12 13 12
7 7 7 8 9 10 9 8 8 7 10 7 8 10 11 12 13 12 13 13 13 13 12 13 12 11 13 12 13 13 12 13 12 12 11 13 13 13 13 12 11 12 12 11
7 7 7 7 8 9 10 8 8 8 8 7 7 7 7 9 11 12 11 12 11 12 12 12 12 12 12 12 14 14 12 11 11 12 12 10 12 12 12 11 11 11 11 10
6 7 7 7 7 9 9 8 8 7 6 5 5 5 5 5 5 5 10 11 12 10 11 11 12 11 12 12 12 12 11 12 11 12 12 12 12 12 10 10 10 11 10 8
6 6 6 6 7 7 9 8 8 8 7 6 6 7 5 5 5 5 6 9 8 10 8 9 10 11 11 11 11 13 12 11 10 11 13 12 11 10 10 10 10 8 8 7
6 6 6 6 6 7 8 8 8 8 8 7 6 6 6 5 5 5 5 6 7 8 7 9 10 10 10 10 10 10 11 10 10 11 12 12 10 11 9 8 8 7 7 7
5 6 5 6 6 6 6 7 7 7 7 6 7 6 6 5 6 6 6 6 7 8 7 6 8 9 9 9 7 7 9 10 9 9 11 10 9 9 9 7 7 7 7 6
5 6 6 6 6 6 6 6 6 7 6 5 6 5 6 5 6 6 7 6 6 6 7 8 8 6 6 7 8 11 11 11 11 11 9 7 7 7 8 8 6 6 6 6
5 5 5 5 6 6 6 6 6 6 6 5 4 5 5 5 5 6 5 6 5 5 6 6 7 5 3 6 8 12 11 10 8 7 6 7 6 6 6 5 5 5 4 4
5 5 5 5 6 6 6 6 6 5 5 4 4 4 4 4 5 5 4 5 5 5 5 5 5 4 4 5 8 10 10 8 7 6 6 5 5 5 4 4 4 4 2 3
5 5 5 5 5 6 5 5 5 5 5 4 3 4 5 4 4 4 4 4 5 4 4 5 5 5 5 7 8 8 7 6 6 4 4 4 4 4 3 3 4 3 2 2
5 5 5 5 5 5 5 5 4 3 3 2 3 3 4 3 4 4 4 5 5 3 5 3 3 5 8 7 8 8 6 5 3 1 1 3 2 3 4 3 3 2 1 0
5 5 4 4 5 5 5 3 3 4 4 3 2 2 3 3 3 5 5 4 3 2 4 3 4 5 7 7 6 6 5 4 3 4 3 2 2 -0 2 1 1 -0 -1 -2
5 5 5 4 4 3 3 2 3 3 4 3 3 3 3 2 2 4 4 3 2 2 2 3 3 5 4 4 4 4 3 3 2 2 1 1 1 1 -0 -1 -2 -1 -1 -1
5 5 2 3 2 2 2 2 2 3 2 1 1 1 3 2 2 3 3 3 3 3 3 3 5 4 3 2 1 2 2 2 1 0 1 1 -0 -0 -1 -2 -2 -3 -3 -3
3 2 2 2 2 2 4 4 4 2 1 1 2 1 2 3 2 4 2 5 3 1 2 5 4 4 3 1 1 1 0 -0 -2 -3 -2 -3 -2 -2 -2 -3 -4 -4 -4 -5
3 2 4 3 3 2 1 -0 0 0 1 1 1 1 3 2 2 3 3 3 1 3 5 5 2 3 2 1 1 0 -1 -3 -4 -4 -5 -5 -4 -4 -4 -4 -5 -5 -6 -6
2 3 3 3 1 1 -0 -1 0 -0 1 -0 1 1 1 2 2 1 1 3 4 5 3 2 1 1 1 1 0 -0 -1 -2 -3 -4 -4 -5 -5 -6 -6 -6 -6 -6 -7 -7
3 3 3 2 1 1 1 2 2 2 1 1 1 0 2 0 0 1 2 3 5 4 1 -0 1 1 0 -0 -1 -1 -1 -2 -3 -4 -4 -5 -6 -6 -6 -7 -6 -7 -7 -6

GFSNW_925_temp_093.txt.gz
Temp
9 9 8 8 8 8 7 7 6 7 7 5 7 8 9 10 11 13 14 13 13 13 14 14 13 13 13 12 14 12 12 11 11 13 15 15 14 13 13 11 13 11 11 11
9 9 9 9 8 8 8 6 6 8 7 8 9 10 9 10 12 13 14 14 14 15 14 13 14 14 14 14 13 13 13 10 8 11 12 12 13 14 14 14 11 11 10 11
9 9 10 10 10 9 9 4 4 5 6 6 9 10 9 11 13 14 14 14 15 14 14 14 14 14 14 14 14 13 12 12 10 9 11 12 12 13 13 12 9 11 10 10
9 10 10 11 11 10 9 5 5 6 5 8 9 10 12 12 12 12 14 14 13 14 14 14 14 15 14 14 14 12 12 11 10 12 14 14 14 12 13 12 13 11 11 11
9 10 10 11 11 11 10 6 7 7 7 10 12 11 11 12 12 12 12 11 12 11 11 11 12 12 12 13 13 14 12 9 11 8 14 14 13 12 13 13 12 12 12 12
8 9 10 10 11 12 9 9 10 8 9 9 10 10 13 12 13 12 12 11 12 11 11 10 10 10 11 13 13 12 12 9 7 9 11 12 11 12 12 13 12 13 12 13
8 8 9 10 10 11 10 8 7 6 8 9 11 12 12 12 11 12 12 10 12 12 11 10 11 11 12 14 14 12 12 11 7 6 10 10 12 13 13 13 13 12 12 11
7 8 8 9 9 9 9 8 7 5 8 9 12 12 12 11 11 11 11 11 10 9 11 11 11 11 13 13 13 14 12 11 9 8 7 12 12 12 12 12 12 12 11 10
7 8 8 9 9 9 8 8 8 6 7 8 7 9 12 10 10 10 11 12 11 11 10 11 13 11 12 12 11 13 12 11 9 10 10 12 13 12 12 12 10 12 11 10
7 7 8 8 8 8 8 8 7 8 6 5 6 7 7 8 9 9 10 12 11 11 9 10 10 8 12 11 11 12 10 10 10 10 8 11 12 11 12 12 11 11 11 11
7 7 7 7 8 8 8 8 8 7 4 4 6 6 6 6 7 9 9 10 9 9 10 9 9 9 10 10 11 13 10 9 9 9 10 9 11 11 11 10 10 10 10 9
6 7 7 7 7 8 8 8 8 7 5 5 6 6 6 6 6 5 6 9 9 8 8 8 8 9 8 9 10 11 10 10 10 10 10 10 9 11 9 8 8 9 8 7
6 6 6 7 7 7 8 8 8 7 4 3 4 4 5 5 5 6 7 6 6 7 6 6 7 9 7 9 8 11 10 9 9 10 11 10 10 9 8 8 9 7 6 6
6 6 6 6 6 7 7 8 7 7 5 4 5 5 5 6 5 5 5 5 6 6 4 6 7 8 8 8 8 8 9 9 9 8 9 10 10 8 7 6 5 5 6 6
6 5 6 6 6 6 7 7 7 6 5 4 5 5 5 5 5 5 5 5 5 5 5 3 6 6 7 6 5 5 7 9 9 9 9 9 9 8 6 5 5 5 5 5
5 5 5 5 6 6 6 4 6 6 6 1 3 4 5 5 5 6 5 5 4 4 5 5 5 5 5 5 5 7 7 7 8 9 8 7 6 6 7 5 5 5 5 5
5 5 5 5 6 6 6 5 6 6 6 2 2 2 3 4 4 4 3 4 3 3 4 5 4 4 2 4 8 9 9 8 7 6 5 6 6 5 5 4 4 5 4 3
5 5 5 5 5 6 5 6 6 6 5 2 0 1 2 4 3 3 2 3 2 3 3 3 4 3 3 5 6 8 9 8 5 4 5 5 3 3 3 3 3 3 2 1
5 5 5 5 5 5 5 5 5 5 4 1 -1 -0 2 2 3 2 3 2 4 2 3 3 4 4 4 7 6 7 6 6 5 3 3 3 3 2 2 2 2 3 1 0
5 5 4 2 5 5 5 4 2 0 -1 -1 0 -1 2 1 2 2 2 2 3 1 4 2 3 4 6 6 6 7 6 4 2 1 1 2 0 1 2 2 1 -0 -1 -1
5 3 1 4 4 4 2 0 1 1 2 1 -0 -0 1 1 1 3 3 1 0 -0 2 2 3 4 5 4 4 5 4 2 2 3 2 2 1 -0 0 -0 -1 -1 -2 -2
5 5 4 4 2 -1 0 -3 1 1 2 1 1 1 1 1 1 2 2 2 2 2 0 1 3 4 4 2 3 2 1 1 1 1 -0 -0 -0 -0 -1 -2 -3 -2 -3 -3
5 4 1 1 -0 0 0 1 -1 -2 -0 -1 -1 -1 1 1 1 1 -0 0 2 1 -1 1 3 4 3 2 1 1 0 1 0 -1 -0 -0 -1 -1 -1 -3 -3 -3 -4 -4
1 0 1 1 -1 -0 1 1 -0 -0 -1 -0 -1 -1 1 1 1 1 -0 3 1 -2 -1 2 1 4 3 2 1 1 -0 -1 -2 -3 -2 -2 -2 -2 -3 -3 -4 -4 -5 -5
1 2 2 1 1 -3 -3 -4 -2 -2 -1 0 -0 -1 0 -1 0 1 0 -0 -2 -0 1 2 1 2 1 1 1 -0 -1 -3 -4 -5 -5 -5 -4 -4 -4 -5 -5 -5 -6 -6
2 2 3 3 0 -3 -4 -5 -3 -2 -1 -3 -1 -1 -2 0 -0 -1 -1 -2 -0 1 1 1 -0 1 1 0 0 -0 -1 -2 -3 -4 -4 -5 -5 -5 -5 -6 -6 -6 -6 -7
3 3 2 1 -0 -2 -2 -1 -0 -1 -0 -1 -1 -1 2 -1 -3 -1 -1 -0 1 1 -1 -2 -0 0 0 -0 -1 -1 -1 -2 -3 -4 -5 -5 -6 -6 -6 -7 -6 -7 -6 -6

GFSNW_925_temp_096.txt.gz
Temp
9 8 8 9 9 9 9 7 4 9 8 6 7 6 9 9 11 12 13 13 13 11 11 11 12 12 12 11 12 10 11 11 10 12 13 13 13 12 12 10 13 10 10 12
9 10 9 10 10 10 8 5 5 8 7 6 6 9 10 10 12 12 13 13 14 14 13 13 13 13 13 11 12 12 12 9 7 10 12 12 12 12 12 11 10 10 10 11
9 10 10 10 10 10 10 4 5 5 5 5 8 9 10 11 13 13 14 13 14 13 13 13 13 13 13 12 12 13 12 10 10 8 11 11 11 11 12 11 8 10 10 10
9 10 10 10 10 11 10 4 5 6 5 7 8 10 11 11 11 12 11 12 11 13 13 12 12 12 12 13 13 12 11 10 9 10 11 12 13 11 11 10 11 11 11 10
8 9 10 11 11 10 10 6 7 5 6 7 10 9 11 11 12 11 12 11 11 10 11 11 11 11 12 12 12 13 10 9 10 7 13 12 13 11 11 12 12 12 11 12
8 8 9 10 11 11 9 8 8 7 8 7 9 9 11 11 12 12 11 11 11 11 11 10 10 9 9 9 12 11 11 8 6 8 10 11 11 12 12 12 12 12 12 12
8 9 8 9 9 10 9 7 7 6 8 8 10 12 11 11 10 12 11 10 12 12 9 9 10 9 9 10 11 10 11 9 6 7 9 9 12 12 12 12 12 11 11 11
7 8 9 8 9 9 10 8 6 5 8 7 10 9 11 11 10 11 11 11 10 8 10 10 11 10 12 13 11 12 10 9 8 7 6 10 12 12 11 11 11 11 11 10
7 7 8 8 8 9 9 8 8 5 7 7 8 8 9 9 8 9 11 11 10 10 9 9 12 10 12 11 10 12 11 9 9 8 9 11 12 11 11 12 10 10 10 9
6 7 7 8 8 8 9 8 7 7 6 4 6 7 9 7 8 8 8 9 10 10 8 10 9 8 11 10 11 12 9 9 9 9 8 9 11 11 11 12 11 9 9 9
6 6 7 7 7 8 8 8 8 7 3 4 5 6 6 6 6 9 8 9 9 8 9 9 8 8 8 9 9 12 10 8 8 8 9 9 9 10 11 10 9 9 9 9
6 6 6 6 7 7 8 8 8 7 5 5 6 6 6 6 6 6 5 8 8 7 7 7 6 9 6 7 9 10 9 9 9 9 9 10 8 11 9 7 8 9 8 8
5 5 6 6 6 7 7 7 7 7 3 3 4 5 6 6 6 5 6 5 6 6 5 5 6 8 6 8 7 9 9 8 8 10 10 8 9 9 8 7 8 7 7 6
5 5 5 6 6 6 6 7 7 6 4 3 5 5 6 6 6 5 5 4 5 5 3 5 6 7 7 7 8 7 8 8 8 7 8 8 8 7 7 6 5 5 5 5
5 5 5 5 6 6 6 6 6 6 5 4 4 4 5 5 5 5 5 4 4 4 4 2 5 5 6 4 4 4 6 9 8 11 9 9 9 8 6 5 5 4 4 4
5 5 5 5 5 6 6 4 5 6 6 1 3 3 4 5 5 5 4 4 3 3 4 4 4 4 5 5 5 7 6 7 9 10 7 7 7 6 5 5 4 3 3 3
5 5 5 5 5 5 5 4 5 5 5 2 2 1 3 4 4 3 2 3 2 2 3 3 4 4 3 3 9 9 7 7 7 6 5 6 5 5 4 4 3 4 3 3
5 5 4 4 5 5 5 5 6 5 5 1 -1 0 1 3 2 3 1 2 1 2 2 2 3 3 2 4 6 6 6 7 6 4 5 6 3 2 2 2 2 1 1 1
4 4 4 4 5 4 5 4 5 5 4 0 -2 -1 1 1 2 1 2 1 3 2 3 3 3 3 4 6 6 6 7 7 6 3 2 2 3 1 1 1 1 0 -0 -1
4 4 4 2 4 4 5 4 2 -0 -2 -2 -0 -2 2 1 1 2 2 2 2 0 3 2 2 3 4 4 4 3 4 5 2 1 1 1 -0 1 1 1 0 -0 -1 -2
4 3 1 4 4 4 1 1 1 1 2 0 -1 -1 1 1 1 3 2 0 -1 -1 2 2 2 2 4 4 2 2 1 3 3 3 3 2 1 -0 -1 -1 -1 -1 -2 -3
5 4 4 4 2 -1 1 -2 0 1 3 0 1 1 1 1 0 2 1 1 1 1 -0 0 1 2 3 2 2 1 0 2 2 2 1 0 0 0 -1 -2 -3 -3 -3 -4
5 3 0 1 0 1 1 2 -1 -3 -1 -2 -1 -0 0 0 1 1 -1 0 1 -0 -2 1 1 2 2 1 1 1 0 1 -0 -1 -1 -1 -1 -1 -1 -3 -3 -3 -4 -4
2 2 2 1 -0 1 2 1 1 0 -1 -1 -1 -1 0 0 0 1 -1 2 0 -1 0 1 -1 2 2 1 0 0 0 -0 -1 -3 -2 -2 -2 -2 -2 -3 -3 -4 -5 -5
3 1 2 1 2 0 -1 -3 -2 -3 -0 -1 -1 -1 0 -1 0 1 -0 -0 1 -1 1 -0 -1 1 0 -0 -0 -0 -1 -3 -4 -4 -4 -4 -3 -3 -4 -4 -4 -5 -5 -6
2 2 2 1 -0 0 -1 -3 -3 -3 -1 -2 -1 -2 -2 -0 -1 -1 -1 -2 -1 1 -2 -1 -2 1 -0 -1 -1 -1 -2 -3 -3 -4 -4 -4 -4 -4 -4 -5 -5 -6 -6 -6
3 3 2 1 0 3 1 -0 -0 -1 0 1 -1 -1 2 -1 -4 -0 -1 -1 0 -1 -2 -3 -1 0 -0 -1 -1 -1 -2 -2 -3 -3 -4 -4 -5 -5 -6 -7 -6 -7 -6 -6

GFSNW_925_temp_099.txt.gz
Temp
8 8 9 10 10 9 9 6 6 10 10 6 5 6 8 10 11 11 12 12 12 10 10 10 10 11 11 10 10 10 10 10 10 11 13 12 12 12 11 8 11 10 11 12
8 9 9 10 10 9 9 4 4 10 9 6 4 8 10 10 11 12 13 13 13 13 11 12 12 12 13 10 10 11 10 8 7 10 11 12 12 12 12 10 9 10 10 12
8 8 9 9 10 10 9 4 6 6 4 5 8 8 9 11 11 12 12 11 13 13 13 12 13 13 13 10 11 13 11 9 9 8 11 11 11 11 11 10 7 10 10 11
9 9 9 10 10 10 10 3 5 6 5 7 8 9 9 11 10 10 10 12 10 11 13 12 12 12 12 12 13 11 10 9 8 9 9 10 10 11 10 10 11 10 11 10
8 8 9 10 10 10 10 6 6 4 6 6 9 8 10 10 11 10 11 11 11 10 12 12 12 11 11 12 12 11 9 8 10 7 11 11 10 11 11 11 12 12 10 10
8 8 8 9 10 10 8 6 7 7 7 7 9 9 11 11 10 11 11 10 10 11 11 10 10 9 9 9 10 10 10 8 6 8 9 9 10 10 11 12 11 12 10 11
7 8 8 8 9 9 9 7 6 6 8 7 9 11 11 10 10 10 11 10 11 11 8 8 8 7 7 7 8 8 10 9 6 6 8 8 12 11 12 11 11 10 10 10
7 7 8 8 9 9 9 8 7 5 7 7 9 10 10 10 9 10 10 11 10 8 9 10 10 9 11 12 10 8 8 8 7 6 6 9 12 11 10 10 11 9 10 9
6 7 7 7 8 8 9 8 8 5 6 7 8 9 9 9 8 8 10 10 10 9 8 9 11 10 11 11 10 9 8 8 8 7 8 11 12 11 11 11 9 9 9 8
6 6 7 7 7 8 8 8 7 7 6 4 6 7 8 7 7 7 7 9 10 9 8 10 9 7 9 9 10 11 9 8 8 8 7 9 10 10 11 12 11 9 9 8
6 6 6 7 7 7 8 8 7 7 4 4 4 6 6 6 6 8 8 8 8 7 9 8 8 7 8 8 8 10 9 8 7 7 8 8 9 10 11 10 9 9 9 8
6 6 6 6 6 6 7 7 7 7 5 5 6 6 7 7 7 5 5 7 7 7 7 6 6 8 5 6 9 8 8 9 9 8 8 9 8 9 9 7 8 8 8 8
5 6 5 6 6 6 6 7 7 6 3 3 4 4 6 5 6 7 7 4 5 6 4 5 5 8 6 7 5 8 8 6 8 9 10 7 7 7 7 6 7 7 7 6
5 5 5 5 5 6 6 6 6 6 3 3 5 5 5 5 5 5 5 5 5 4 3 5 5 7 6 6 7 6 8 6 7 6 7 7 7 6 7 7 6 6 5 5
6 5 5 5 5 5 6 6 6 6 5 3 4 4 5 5 5 5 4 4 3 3 3 2 5 4 5 4 3 5 6 9 9 10 9 10 9 9 6 5 4 4 4 3
6 5 5 5 5 5 6 3 5 5 5 0 3 3 4 4 4 4 3 3 2 2 3 3 3 3 5 5 4 6 6 7 10 11 8 6 7 7 5 5 4 3 3 2
6 5 5 5 5 5 5 4 5 5 5 1 1 1 2 3 3 2 1 2 1 2 2 2 3 3 3 3 8 8 8 6 6 5 6 7 5 7 3 4 3 4 2 2
6 5 4 4 4 5 5 5 5 5 5 1 -2 0 1 3 2 2 0 1 0 1 2 2 3 2 3 4 5 6 6 5 4 4 3 6 4 2 2 1 1 0 -0 -1
5 4 4 4 4 4 4 4 4 4 4 0 -2 -1 2 1 1 1 1 1 3 1 2 2 2 3 3 6 5 5 5 5 5 3 3 3 3 1 0 0 0 0 -1 -1
5 4 4 2 4 4 4 3 1 -1 -2 -2 -0 -2 1 1 0 1 1 1 2 -0 3 1 2 3 4 4 4 3 2 2 2 -0 1 2 -0 1 0 0 0 -0 -1 -2
5 3 2 3 3 4 1 0 1 1 1 1 -1 -0 1 0 2 3 2 0 -1 0 2 2 1 2 3 4 3 1 -0 -1 -0 2 3 2 2 0 0 -0 -1 -1 -1 -2
5 4 4 3 2 -0 1 -1 1 1 3 0 0 1 1 0 0 2 1 1 1 2 -1 0 2 1 3 2 2 1 -1 1 2 2 2 2 1 0 -0 -1 -2 -2 -2 -3
5 4 1 2 2 1 -0 2 2 1 -0 -1 -1 -0 0 -0 1 0 -1 1 2 -1 -3 1 1 1 2 1 0 0 0 0 -0 -1 -0 -0 -1 0 -1 -3 -2 -3 -4 -4
2 2 3 1 0 0 2 3 3 1 -1 -1 -1 -1 1 0 0 0 0 2 0 -0 1 1 -1 1 3 1 -0 -0 1 -0 -1 -5 -2 -2 -2 -2 -1 -2 -2 -3 -4 -4
2 2 3 1 1 -2 -2 -0 0 -1 0 -1 -0 -1 0 -1 -0 1 -0 0 1 0 2 0 -1 1 1 0 -1 -1 -2 -4 -5 -5 -6 -4 -3 -3 -3 -3 -3 -4 -4 -5
2 1 1 0 -1 -2 -1 -0 1 -1 1 -1 0 -0 -1 0 -0 -1 0 -1 0 3 -1 -1 -1 1 -0 -1 -1 -1 -2 -3 -3 -4 -4 -3 -4 -4 -4 -4 -4 -5 -5 -5
2 3 2 0 -1 1 2 1 1 0 2 3 1 0 3 -0 -1 1 -0 -0 1 -0 -1 -3 -1 2 1 -1 -2 -2 -2 -3 -3 -3 -3 -3 -3 -4 -5 -8 -6 -5 -6 -6

GFSNW_925_temp_102.txt.gz
Temp
9 9 10 10 10 9 9 6 6 12 12 6 4 7 8 10 11 11 11 11 11 10 10 10 10 10 10 10 10 10 10 11 10 10 12 11 12 12 10 8 10 9 10 10
9 9 9 10 10 9 9 4 5 12 13 6 5 8 10 10 11 11 12 12 13 12 10 11 9 11 12 9 9 10 10 8 6 10 11 12 12 11 11 9 8 9 9 11
9 9 9 10 10 10 9 5 6 6 4 4 8 8 8 10 11 11 11 11 12 13 12 11 12 12 12 9 10 12 10 8 9 8 11 10 10 10 11 9 6 9 8 10
8 9 10 10 10 10 10 3 5 6 5 7 7 8 10 10 10 10 10 12 10 10 12 12 12 11 11 11 12 11 10 9 7 8 8 9 9 10 10 9 9 9 11 10
8 8 9 10 10 10 9 6 6 4 5 6 9 8 9 10 10 10 11 11 10 10 11 11 11 10 11 11 11 10 8 7 8 6 10 8 9 9 9 9 11 9 10 9
7 8 8 9 10 10 8 6 6 6 6 7 8 8 10 10 10 11 11 10 10 10 11 9 9 8 9 9 10 9 9 7 6 8 8 8 9 9 9 11 10 10 10 10
7 7 8 8 9 9 9 6 6 6 8 6 8 9 10 10 9 10 10 10 10 11 8 7 7 6 6 6 6 7 8 8 5 6 7 8 11 11 11 11 10 9 9 9
7 7 7 7 8 9 9 8 6 5 7 5 8 9 9 10 9 8 9 10 9 7 8 9 10 9 11 10 8 7 7 7 7 6 5 9 12 10 10 10 11 9 9 9
6 7 7 7 7 8 8 8 8 5 6 6 9 8 9 8 8 8 9 10 8 8 7 9 11 11 10 11 9 6 7 7 8 6 8 10 11 11 10 11 9 10 8 8
6 6 6 7 7 7 8 8 7 6 5 4 6 7 8 7 6 6 6 8 9 8 7 9 8 7 8 9 10 9 8 7 7 7 7 8 9 10 10 12 11 9 8 7
6 6 6 6 7 7 7 7 7 7 3 4 4 6 6 5 5 8 8 8 7 6 8 8 7 7 7 7 7 9 9 7 6 6 7 8 8 10 11 10 8 9 8 7
7 6 5 6 6 6 7 7 7 6 5 5 6 7 7 7 7 5 5 7 7 6 6 6 5 7 4 6 8 6 8 8 8 8 8 9 7 8 9 7 8 8 8 7
6 6 6 5 5 6 6 6 6 6 2 3 4 4 6 6 6 7 6 4 5 5 4 4 5 7 5 7 4 7 8 6 7 8 10 7 7 6 5 7 6 8 6 6
6 6 6 5 5 5 5 6 6 6 3 2 4 5 5 5 5 5 6 5 4 3 2 4 5 6 6 6 7 5 8 6 6 5 7 7 8 6 6 6 5 6 5 5
6 6 5 5 5 5 5 5 5 6 5 3 3 4 4 4 4 4 4 4 3 3 3 1 4 4 4 3 3 3 5 8 6 9 10 8 9 8 7 6 5 4 4 4
6 6 5 5 5 5 5 3 4 5 5 1 3 3 3 3 4 3 3 3 2 2 3 3 2 2 4 5 4 5 5 6 8 9 8 6 6 5 5 5 4 3 3 3
6 5 5 4 4 4 5 4 5 5 5 1 1 1 2 3 3 1 1 1 1 1 2 2 2 3 2 4 7 9 6 6 5 4 4 4 4 6 5 4 3 4 3 2
6 5 5 4 4 4 4 5 5 5 4 1 -2 0 1 2 1 2 -0 1 0 1 2 1 3 3 2 5 7 6 5 4 3 3 3 3 3 4 2 1 0 0 0 -1
5 5 4 4 4 3 4 3 3 4 3 1 -1 -0 2 1 1 1 1 0 2 1 2 2 2 4 4 5 5 5 4 5 4 2 1 1 1 2 1 0 -0 0 -0 -1
4 4 4 3 4 3 3 2 1 -1 -1 -2 0 -2 1 0 0 1 1 1 2 -1 2 1 3 4 5 5 4 2 2 1 0 -1 0 1 -0 0 -0 0 -0 0 -0 -1
4 3 2 3 3 3 2 2 1 1 1 1 -0 0 1 0 2 3 2 0 0 0 1 1 1 2 3 3 3 2 0 -1 -1 -1 0 1 1 -1 -1 -0 -0 -0 -1 -2
5 4 4 3 2 1 3 2 0 1 3 1 1 0 1 -0 -0 2 1 1 0 3 -1 0 3 2 3 2 2 2 -0 -1 0 1 1 1 0 0 -1 -2 -3 -1 -1 -2
3 3 1 2 2 1 1 2 0 2 2 0 0 1 1 -1 1 0 -0 0 2 -1 -0 2 2 2 2 1 1 0 -0 0 0 0 0 0 -0 -0 -1 -2 -1 -2 -3 -3
2 2 3 2 0 1 2 2 2 1 1 1 2 0 2 1 1 0 0 2 0 1 2 2 2 2 3 1 -0 -0 1 -0 -0 -5 -3 -2 -2 -1 -1 -1 -1 -2 -4 -4
2 2 4 3 1 -3 -3 -3 -2 -2 1 0 1 1 2 -0 -0 1 1 0 1 1 2 2 2 3 2 1 -0 -1 -1 -3 -4 -6 -7 -6 -3 -3 -3 -2 -2 -2 -3 -4
2 2 2 -0 -3 -4 -4 -4 -1 -1 2 -0 1 1 2 3 1 -1 1 3 4 4 -0 1 0 2 1 0 -0 -1 -2 -3 -3 -4 -4 -3 -4 -4 -3 -3 -3 -3 -3 -4
2 3 2 -0 -3 -1 0 0 1 1 2 3 2 1 4 -1 -2 -0 1 3 4 1 -1 -1 -0 2 2 0 -1 -1 -2 -2 -3 -3 -3 -3 -2 -3 -4 -8 -4 -4 -4 -4

GFSNW_925_temp_105.txt.gz
Temp
8 9 9 10 11 10 10 7 6 12 9 6 4 7 8 10 11 11 11 11 10 10 9 10 10 10 10 10 10 11 11 10 10 9 11 10 11 11 9 10 10 9 9 11
9 9 9 10 10 11 10 5 6 12 12 7 3 8 9 10 10 10 11 11 11 11 10 11 10 11 11 9 10 10 10 9 8 10 11 10 11 10 10 8 8 9 10 12
8 9 9 10 10 10 10 5 6 6 4 4 7 9 9 11 10 10 10 10 11 12 11 10 11 12 12 9 10 11 10 8 9 9 11 10 10 9 10 9 7 9 9 10
7 8 9 10 10 11 10 3 5 5 6 7 7 8 10 10 11 10 9 11 10 10 11 11 11 11 11 9 11 10 9 8 6 7 8 9 9 10 9 8 9 10 10 9
7 7 8 9 10 11 9 6 6 3 4 5 9 9 9 10 10 10 11 11 10 10 11 11 11 10 10 10 10 9 7 8 7 6 8 8 8 8 8 9 9 8 8 9
8 7 8 9 10 11 8 5 6 6 5 6 8 8 9 10 9 10 10 10 9 10 9 9 8 8 8 9 9 8 8 7 6 7 8 8 9 10 8 9 9 10 10 11
7 7 7 8 9 9 9 7 6 6 8 6 7 9 9 10 9 9 10 9 9 10 8 7 7 6 6 6 6 7 7 7 5 6 7 9 12 10 9 9 10 9 9 10
7 7 7 7 8 8 9 8 7 5 7 5 7 8 9 9 8 8 9 9 8 7 8 8 9 9 10 8 6 5 6 7 6 6 5 9 13 10 10 11 11 9 9 9
7 7 6 7 7 8 8 8 7 6 6 6 8 8 8 7 7 7 8 9 8 8 6 8 11 10 10 10 9 5 5 6 7 6 7 10 11 11 10 10 10 10 8 8
6 7 6 6 6 7 7 7 7 6 5 4 6 7 7 6 6 6 6 8 9 8 7 9 8 7 8 9 10 7 7 6 7 7 7 8 8 10 9 11 12 10 8 8
6 6 6 6 6 6 7 7 7 6 3 4 4 6 6 5 5 7 7 7 6 6 8 7 7 7 6 7 7 7 7 6 6 5 6 7 8 9 11 10 9 9 8 7
7 6 6 6 6 6 6 6 6 6 4 5 6 7 8 8 8 5 4 6 6 6 6 5 5 7 3 5 7 6 8 8 8 7 8 9 7 9 8 7 8 9 8 7
7 7 6 5 6 6 5 6 6 5 1 2 3 3 6 6 6 8 6 3 5 4 3 4 5 7 5 7 4 6 7 5 7 8 9 7 6 6 6 6 6 6 6 7
7 7 6 5 5 5 5 5 5 5 3 2 4 5 5 5 5 6 6 5 4 3 2 4 5 6 5 5 6 5 7 6 6 5 7 7 8 5 6 7 5 4 5 5
6 7 6 6 5 5 5 5 5 5 4 3 3 4 3 4 4 4 4 4 2 2 3 2 4 3 3 3 2 3 4 7 6 9 8 8 8 7 7 7 6 5 4 4
6 6 6 6 5 4 5 3 4 4 4 1 3 3 2 3 3 3 2 2 1 1 3 2 2 2 3 5 4 6 4 5 8 9 7 5 5 4 5 5 6 4 3 3
6 6 6 5 4 4 4 4 5 5 5 1 2 2 2 3 2 0 -0 1 0 1 2 2 2 2 2 3 7 10 5 5 5 4 5 4 5 5 3 3 2 4 3 3
6 6 5 4 4 4 4 5 4 5 4 1 0 2 1 2 1 2 -1 0 -0 0 1 2 2 2 3 4 6 7 6 5 4 3 2 3 2 1 1 2 1 1 1 -0
6 5 4 4 4 3 3 3 3 4 3 2 0 2 3 0 0 0 0 0 2 0 2 2 2 3 4 5 5 5 5 5 6 4 1 0 0 1 1 1 0 1 -0 -1
5 4 4 4 3 3 3 2 1 -0 -0 -1 1 1 2 1 0 1 1 1 2 -1 2 1 3 4 6 4 4 4 4 3 2 -0 1 2 -0 1 1 0 -0 -0 -0 -1
4 3 3 2 2 2 2 3 2 1 1 1 1 2 2 1 2 3 2 1 1 1 2 2 2 3 2 3 3 4 2 1 0 -0 0 0 1 -1 1 -0 -1 -0 -0 -2
5 4 3 2 1 1 3 3 2 1 2 1 0 1 2 1 1 3 1 1 1 3 -1 2 3 4 3 3 2 1 -0 -1 -1 -1 -0 -1 -1 0 -1 -1 -2 -1 -0 -0
3 2 1 2 2 2 2 1 -0 -0 1 -1 -1 -0 1 -0 1 2 1 1 3 -1 1 2 4 2 3 2 2 1 -0 -1 -0 1 0 1 0 0 -0 -2 -1 -1 -2 -2
2 2 3 3 3 1 1 2 1 0 -1 0 0 -1 0 1 1 2 1 2 -0 1 2 3 3 2 4 2 1 1 1 -1 -0 -2 -3 -3 -1 -1 -0 -0 -1 -2 -3 -3
2 2 4 2 2 -3 -4 -5 -3 -2 -0 1 0 -1 1 -0 0 1 0 1 1 1 4 4 2 3 3 2 0 -1 -1 -3 -4 -6 -6 -5 -3 -2 -2 -1 -1 -1 -2 -3
2 2 3 1 -2 -4 -4 -5 -1 -0 1 0 2 1 0 1 0 -1 0 -0 1 5 3 3 -0 3 2 2 1 0 -1 -2 -2 -3 -3 -3 -4 -4 -2 -2 -2 -2 -2 -3
1 2 2 -1 -3 0 -1 -0 1 1 3 3 2 2 3 -1 -3 -2 -1 1 4 4 3 1 1 2 2 1 1 0 -1 -2 -2 -2 -2 -3 -2 -3 -4 -7 -4 -3 -3 -2

GFSNW_925_temp_108.txt.gz
Temp
9 9 9 10 10 11 11 9 12 11 10 12 10 10 12 11 12 12 12 13 13 13 13 13 13 13 13 13 13 14 13 13 12 14 14 13 14 15 15 15 14 14 14 15
8 9 9 9 10 10 11 11 10 11 10 13 11 11 11 11 12 12 13 13 13 13 13 13 13 13 13 12 13 14 13 13 12 15 13 13 13 14 14 13 12 13 15 18
8 9 9 9 10 10 10 12 12 13 10 9 13 13 12 12 11 12 12 13 13 13 13 13 14 14 13 12 13 11 12 12 13 15 17 14 14 14 14 14 13 15 15 17
8 9 9 9 10 10 9 10 10 9 12 12 11 12 12 12 13 12 12 12 13 14 14 13 13 13 13 11 12 12 13 12 12 13 14 13 13 13 13 12 13 13 16 15
8 8 9 10 10 11 9 12 12 8 10 9 12 11 12 12 12 12 13 13 12 12 14 15 15 14 13 14 12 12 11 12 11 10 14 13 11 13 13 13 13 13 14 14
8 8 8 9 10 11 9 5 6 12 8 11 12 12 12 12 11 12 11 11 12 12 12 12 13 13 12 12 13 12 12 11 11 12 13 13 13 14 13 13 13 13 13 16
8 7 8 8 9 9 9 7 7 12 13 11 13 11 11 11 11 12 11 11 12 12 10 11 10 11 11 11 11 12 12 11 11 11 12 14 14 13 13 13 14 14 14 14
7 7 7 7 8 8 8 7 7 11 13 11 10 10 11 11 10 11 11 12 12 10 11 13 14 14 12 11 9 10 11 12 12 11 12 15 15 12 13 13 15 14 14 15
7 7 7 7 7 8 8 7 7 8 11 12 11 11 11 12 12 11 10 10 9 10 12 13 13 15 13 14 11 8 9 11 10 10 11 14 15 13 12 12 15 14 12 13
7 7 7 7 6 7 7 7 7 7 10 10 9 11 12 10 10 11 10 10 10 9 12 13 13 13 11 13 12 11 10 9 9 11 10 13 15 13 12 14 16 13 12 13
7 7 7 7 6 6 6 6 6 7 8 9 7 8 9 8 10 12 10 11 9 10 11 12 13 12 12 11 12 12 13 12 11 10 10 11 12 11 13 15 13 13 12 12
7 7 7 7 6 6 6 6 6 6 6 9 6 7 8 8 9 11 8 10 10 12 12 11 11 11 10 12 13 9 11 14 15 14 14 14 12 15 13 12 12 12 12 13
7 7 7 6 6 6 6 5 5 5 5 7 6 7 6 6 6 8 10 8 8 8 8 11 11 11 11 12 11 12 11 10 11 11 15 13 14 13 12 12 11 12 11 10
7 7 7 6 6 6 5 5 5 5 4 6 9 5 5 5 5 5 6 6 5 6 7 9 10 10 11 12 12 11 14 10 12 12 13 13 13 13 12 11 10 9 10 9
7 6 6 6 6 5 5 5 4 5 5 7 7 4 4 4 4 4 4 5 6 7 8 7 7 9 8 9 7 9 11 12 11 13 14 14 14 12 10 10 10 10 9 9
7 6 6 6 5 5 5 5 4 4 4 4 6 4 3 2 2 3 3 4 5 6 7 8 8 6 8 9 10 12 11 12 13 13 14 12 12 10 9 8 8 8 7 8
7 6 6 6 4 4 5 6 5 4 4 4 5 5 3 2 2 2 3 2 4 5 6 5 7 6 6 7 10 15 11 11 11 11 10 9 8 10 8 6 6 6 5 5
7 6 6 5 4 4 4 5 4 5 4 3 4 5 3 2 3 4 2 3 3 4 5 4 5 4 5 6 10 11 10 10 9 9 8 9 7 5 5 5 5 5 5 5
6 6 5 4 4 3 3 3 2 3 3 4 3 5 7 2 3 3 2 3 4 3 4 5 5 6 5 8 9 9 9 8 9 7 6 5 5 5 5 4 4 4 5 4
6 5 4 4 3 3 3 2 2 2 3 2 3 4 4 4 3 4 4 3 5 4 5 3 4 6 7 8 8 9 8 8 6 4 5 5 3 4 5 4 4 4 4 3
4 3 3 2 2 2 2 3 3 4 3 3 2 3 4 3 5 6 4 4 4 4 5 4 5 5 7 7 7 8 8 5 6 5 6 4 4 3 3 4 2 2 2 2
5 3 2 1 1 2 3 3 3 3 5 4 3 3 4 3 3 6 3 4 3 4 2 3 4 6 7 6 5 5 5 5 4 3 3 3 3 2 2 2 1 1 1 0
3 2 1 2 2 3 3 3 3 3 4 2 2 3 4 1 2 4 4 3 4 2 3 4 6 7 6 5 4 4 3 3 3 3 2 2 2 1 1 2 1 1 -0 -1
2 2 3 4 4 4 5 5 5 4 2 2 3 2 4 3 3 4 3 5 2 2 3 5 7 7 7 6 5 4 4 3 3 1 0 1 1 1 1 0 0 -0 -0 -2
3 2 4 4 5 2 1 1 1 1 2 3 3 2 4 3 4 3 2 2 2 3 6 7 7 6 5 5 4 4 4 2 1 1 -1 -2 -1 -0 1 -0 -0 -1 -1 -2
2 2 3 3 3 1 -0 -0 2 1 3 2 4 3 3 4 3 2 2 4 4 7 4 6 5 5 4 4 5 4 4 3 2 0 -0 -1 -1 -1 -0 -1 -1 -1 -1 -2
2 2 3 5 1 5 3 3 3 2 4 4 3 3 5 1 2 2 3 4 6 6 6 5 4 5 6 5 4 3 3 2 2 1 -0 -1 -1 -2 -3 -2 -3 -2 -2 -1

GFSNW_925_temp_111.txt.gz
Temp
8 9 10 10 12 12 11 13 14 13 12 15 15 13 14 12 14 14 14 15 16 16 15 16 16 16 16 16 15 16 16 16 15 17 17 16 16 17 17 16 17 16 16 16
9 9 10 10 11 12 10 16 15 13 11 14 14 13 13 14 14 14 15 15 15 15 16 16 16 16 16 15 15 16 16 15 15 16 16 15 14 16 16 17 16 14 15 18
8 9 9 10 11 12 12 16 13 16 16 15 17 15 14 14 13 14 14 15 15 15 16 16 16 16 15 15 14 12 14 15 15 16 17 17 16 16 16 16 14 15 17 18
8 8 9 10 11 12 12 14 13 12 15 15 15 15 15 15 15 14 14 15 15 16 16 16 16 16 16 14 13 14 14 14 14 15 15 15 15 15 16 15 15 14 16 17
8 8 9 10 11 12 12 16 15 13 14 13 15 13 15 15 14 15 15 14 15 15 16 16 16 16 16 16 14 14 14 13 14 11 15 16 15 15 15 15 15 15 16 16
8 8 8 9 11 11 13 10 11 14 11 15 15 17 16 15 14 14 14 15 15 15 16 15 15 16 16 16 15 14 14 13 12 13 16 15 15 17 16 15 16 16 15 17
7 8 8 8 9 10 9 8 11 15 16 14 16 14 14 14 14 15 15 14 14 15 14 14 14 13 14 15 15 15 15 13 13 12 14 14 16 16 15 16 16 16 16 16
7 7 8 8 8 8 8 7 10 14 16 15 14 13 14 14 13 12 13 14 15 13 14 15 16 16 14 14 13 13 14 14 13 12 14 16 17 13 14 14 16 17 16 17
7 7 7 8 8 8 7 7 8 11 14 15 14 14 14 14 15 14 13 12 12 12 14 15 15 17 17 15 12 11 12 13 13 14 12 14 17 15 15 14 15 17 16 16
7 7 7 7 7 7 7 6 7 9 12 14 13 14 14 14 14 14 13 13 12 12 14 14 15 16 14 15 15 11 11 10 10 11 12 14 17 15 14 14 17 16 15 15
8 7 7 7 7 7 7 6 6 7 11 12 10 11 12 11 12 14 13 13 11 12 13 15 16 14 16 13 16 15 15 13 11 12 12 11 15 13 14 17 16 15 15 15
8 7 7 7 6 6 6 7 6 6 7 10 7 9 9 10 12 13 13 14 13 14 13 14 15 14 14 14 15 16 14 16 17 15 15 17 15 17 16 15 14 14 14 14
8 7 7 6 6 6 6 5 5 5 6 9 7 9 8 7 7 8 12 13 13 12 11 13 14 12 15 14 15 15 16 15 13 15 17 17 17 16 15 15 14 14 13 13
8 7 7 6 6 6 6 5 5 5 6 7 11 7 6 5 5 5 7 9 7 9 9 11 12 12 14 13 15 14 15 14 13 14 15 16 16 16 16 16 14 13 12 12
7 7 7 6 6 6 5 4 4 4 6 7 8 7 4 4 4 4 5 6 9 9 9 9 10 12 11 12 12 11 14 14 14 14 16 16 17 15 13 13 12 12 11 10
7 7 7 6 6 5 5 6 5 4 4 5 7 6 4 3 3 4 5 6 7 8 9 9 10 10 10 11 12 15 16 15 15 15 16 15 15 12 13 12 11 11 9 9
7 7 7 6 6 5 6 6 5 5 4 5 6 8 4 3 4 4 4 4 6 6 7 7 8 8 7 9 11 15 17 15 15 15 15 13 13 12 11 11 10 8 8 7
6 7 7 6 5 4 4 5 4 5 4 3 5 7 6 4 5 6 4 5 5 6 7 6 5 7 7 8 11 13 14 13 13 13 13 12 12 9 8 8 8 7 7 7
6 6 6 4 4 4 4 3 3 3 4 4 4 6 9 4 5 5 4 5 5 6 5 6 6 7 6 8 10 11 12 11 10 10 11 10 9 8 8 7 7 6 6 7
5 5 4 3 3 3 3 2 3 2 2 2 4 7 7 6 5 6 6 5 6 5 6 5 4 6 8 9 10 11 11 11 10 5 6 6 6 5 7 6 6 6 6 5
5 4 3 2 2 2 4 4 4 4 4 4 4 6 7 5 7 8 7 6 6 5 7 5 6 7 9 10 10 10 11 11 9 9 8 7 7 5 5 6 5 4 4 4
4 4 2 2 1 2 4 4 5 4 5 7 5 5 6 6 6 7 5 6 4 6 5 4 5 8 9 8 9 8 8 11 8 8 6 5 5 5 4 4 3 3 2 2
3 2 2 2 3 4 5 5 5 5 6 5 4 4 6 4 4 6 5 5 4 4 4 5 8 10 10 10 6 6 6 7 6 6 5 5 5 3 3 3 2 2 2 1
3 3 4 4 5 4 7 7 7 6 5 4 5 4 5 6 5 6 5 7 5 5 5 7 10 11 10 9 8 6 5 5 5 2 2 2 2 3 3 2 3 2 2 1
3 2 5 5 6 5 5 4 4 3 5 4 3 3 3 4 4 3 4 4 4 6 8 9 9 8 7 7 7 7 6 5 3 3 1 1 1 2 3 2 1 1 1 0
2 2 4 5 4 5 3 3 4 3 4 4 4 4 4 5 5 4 4 5 6 9 6 7 8 7 7 7 6 6 7 7 5 3 2 1 1 1 1 2 1 0 0 -1
2 3 5 6 6 7 7 6 7 5 4 5 4 4 5 2 3 4 6 5 8 9 7 7 8 7 7 8 6 5 5 5 5 4 3 1 1 1 -0 -0 -0 -0 -0 -1

GFSNW_925_temp_114.txt.gz
Temp
9 9 10 10 12 11 12 13 13 14 13 13 14 11 14 13 14 14 15 15 16 16 16 16 16 16 16 16 16 15 14 14 12 14 16 15 15 15 14 11 14 13 13 12
9 10 10 10 12 12 12 15 14 15 14 13 12 14 13 14 14 15 15 16 16 16 16 16 16 16 15 15 15 14 15 13 10 15 14 15 13 14 14 14 13 11 11 12
9 9 10 11 12 12 12 14 11 15 14 15 15 15 15 14 14 15 15 15 16 16 16 16 16 16 14 15 14 13 13 13 12 11 15 14 14 14 15 13 10 12 13 14
9 10 10 12 12 12 13 13 12 12 13 14 15 15 16 15 15 14 15 15 15 16 16 16 15 16 14 14 13 13 13 11 12 12 14 13 13 13 14 13 13 12 14 13
8 9 10 12 13 13 13 12 13 12 14 14 15 13 15 16 15 15 15 14 16 16 15 16 16 16 16 15 12 13 13 10 12 9 13 13 12 13 13 14 14 14 14 14
8 9 9 10 12 13 13 12 12 12 12 15 15 15 16 15 15 15 15 15 14 14 14 14 14 14 13 14 14 12 13 10 10 10 12 12 11 14 14 14 14 14 13 14
7 8 9 9 10 10 10 8 10 12 14 14 15 15 15 14 14 13 15 14 13 12 13 13 12 11 12 12 13 13 13 12 11 9 10 9 14 16 15 15 15 14 14 14
7 7 8 8 9 10 8 8 9 11 12 13 14 14 14 14 13 12 13 14 13 12 12 12 13 13 14 13 12 12 12 11 10 8 9 12 14 14 12 12 13 14 14 14
7 7 7 8 8 9 8 8 8 10 10 13 14 13 14 12 13 13 12 12 12 12 12 13 12 13 16 13 11 11 11 11 11 10 9 10 15 13 14 14 10 14 14 15
7 7 7 7 8 8 8 7 7 8 9 12 13 12 12 13 12 12 13 11 10 12 11 11 11 11 14 12 13 8 9 10 10 10 10 10 14 12 13 13 13 14 14 13
8 7 7 7 7 7 7 7 7 7 7 9 11 11 11 11 10 11 11 11 10 10 10 11 12 12 12 12 13 11 9 8 8 9 9 9 12 12 12 13 14 13 13 13
8 8 7 7 7 7 7 7 6 6 5 7 9 10 10 10 9 9 11 11 12 11 10 11 11 11 12 12 11 14 11 13 11 11 11 13 12 13 12 13 12 13 13 12
8 8 8 7 7 7 6 6 6 5 5 6 7 8 8 8 9 9 9 10 11 10 8 9 10 10 10 11 11 12 13 13 11 13 13 14 15 12 12 12 12 12 12 11
8 7 7 7 7 7 6 5 5 5 6 5 8 7 7 7 6 6 8 7 8 9 7 8 9 9 11 10 11 11 12 13 12 12 13 14 14 14 14 13 12 11 11 11
7 7 7 7 7 6 6 5 4 4 5 5 5 7 5 5 5 5 5 6 7 7 6 6 7 8 10 10 10 11 12 13 12 13 14 13 14 13 13 12 11 11 10 9
7 7 7 7 6 6 6 5 5 4 4 3 5 5 4 4 4 5 5 5 5 6 6 6 7 7 8 7 7 11 11 12 13 14 13 12 12 11 12 10 10 10 9 8
6 7 7 7 6 6 6 6 5 5 4 4 5 5 3 4 4 4 3 4 4 4 6 6 6 6 6 5 9 13 13 13 12 12 12 11 11 10 10 10 9 9 8 7
6 6 7 7 6 5 5 5 5 5 4 3 4 5 4 3 3 4 4 4 4 4 4 5 5 5 5 6 9 10 10 11 11 12 10 11 9 8 8 8 7 6 5 4
6 6 6 5 4 4 4 3 3 3 3 4 4 5 6 2 4 3 2 5 4 4 4 4 4 4 5 7 8 8 9 9 9 9 8 9 9 7 7 6 5 4 3 4
5 5 5 4 3 3 3 2 2 1 2 1 3 4 4 3 3 3 4 4 4 5 5 4 4 5 7 8 8 8 8 8 8 4 5 6 5 5 5 4 4 4 4 3
5 4 4 2 2 2 3 4 3 3 3 3 2 3 5 4 5 6 5 5 4 4 5 4 5 5 6 8 7 7 7 7 8 6 7 5 6 4 4 4 3 2 3 2
4 4 2 2 2 2 3 4 4 4 5 4 4 4 3 4 4 4 4 4 4 4 3 4 4 4 6 6 6 5 5 5 5 6 5 5 5 4 3 2 0 2 3 3
4 3 1 2 3 3 4 5 4 4 3 2 2 2 3 2 2 4 4 4 4 2 3 3 3 5 7 6 5 4 4 4 7 6 6 5 4 4 3 1 2 3 2 2
3 3 4 3 4 4 4 4 3 3 2 2 2 2 3 4 3 4 4 5 3 2 3 3 3 7 7 6 5 4 5 4 4 0 -0 1 2 1 3 3 3 2 1 2
3 2 3 4 3 2 2 1 1 0 2 3 1 2 2 2 3 3 4 4 4 3 3 5 5 7 6 6 5 5 5 4 2 0 -0 0 0 0 1 3 3 2 2 1
2 2 3 4 3 3 1 0 1 1 2 1 1 4 3 4 3 4 2 3 3 3 3 4 5 6 6 6 6 6 5 5 4 2 2 1 0 -0 1 3 2 2 1 1
2 2 2 3 2 2 2 2 2 3 2 1 3 4 3 2 3 3 3 3 3 4 7 2 3 4 7 8 5 5 4 5 5 5 4 2 3 2 1 -1 0 1 1 1

GFSNW_925_temp_120.txt.gz
Temp
9 9 10 11 11 12 11 9 9 12 10 8 5 6 11 13 12 13 12 13 14 13 13 14 14 13 14 13 13 13 13 10 9 10 12 11 11 11 10 9 11 8 8 9
10 11 11 11 12 12 11 8 9 11 10 7 5 11 12 13 12 12 13 13 14 14 14 14 14 13 13 13 13 12 12 10 7 10 11 12 12 11 11 11 9 9 9 11
9 11 13 12 12 13 12 8 8 8 7 7 10 12 12 12 12 13 13 13 14 14 14 14 14 13 13 12 13 13 12 9 10 10 13 11 11 11 10 11 7 11 12 14
10 11 13 13 13 13 13 6 8 8 7 10 12 12 12 12 13 12 13 13 13 13 13 13 13 13 12 12 12 12 10 9 8 9 9 10 11 11 11 10 11 10 14 12
11 11 13 14 13 14 12 8 9 7 8 10 12 11 13 13 13 12 13 13 13 13 13 13 13 13 12 11 10 10 9 8 9 6 9 9 9 10 10 11 11 11 12 12
10 10 11 13 14 14 10 8 8 8 8 9 10 11 13 13 13 13 13 12 12 12 12 12 11 11 11 12 9 9 9 7 7 8 8 8 8 11 11 10 9 11 10 12
10 9 9 10 11 12 10 7 7 8 10 9 10 13 13 13 13 13 13 12 12 12 11 10 10 8 7 8 8 9 8 8 7 7 7 8 13 11 12 11 11 10 11 12
9 9 9 9 9 9 10 8 8 6 9 8 10 12 12 12 12 11 12 12 11 10 11 10 9 9 11 9 8 7 8 8 7 6 5 9 12 13 13 12 12 12 12 12
8 8 9 9 9 9 9 8 8 7 8 9 11 11 11 9 9 9 11 10 10 10 8 9 11 11 12 12 10 8 7 8 8 7 7 10 13 13 12 13 11 13 10 11
8 8 8 8 8 8 8 8 8 7 6 7 10 9 10 9 8 8 8 10 10 9 7 9 8 8 11 11 11 8 8 7 9 9 8 9 11 11 13 13 15 14 12 11
8 8 8 8 8 8 8 7 7 7 5 5 9 10 9 9 8 9 9 9 8 7 9 8 9 9 10 10 9 7 8 7 7 8 8 8 10 11 12 12 12 13 12 11
8 8 8 8 8 8 7 7 7 6 5 6 7 9 9 10 10 7 8 8 8 8 7 7 8 9 8 9 10 8 10 10 9 9 10 11 9 11 11 10 11 12 11 10
8 8 8 8 8 7 7 6 6 5 3 4 5 7 7 8 8 9 7 6 7 7 6 7 7 8 7 8 7 10 10 9 9 9 11 11 11 10 9 9 10 10 9 10
7 7 7 7 7 7 6 6 6 5 3 3 6 7 7 7 7 7 8 7 6 6 4 6 6 7 7 7 8 7 9 10 9 10 12 12 12 11 12 10 9 8 8 8
7 7 7 7 7 7 6 6 5 4 5 4 4 5 5 5 5 5 5 6 5 4 5 3 5 4 6 5 5 9 9 9 8 10 12 11 12 10 10 9 10 10 8 8
6 7 7 7 7 7 6 4 5 5 4 1 5 4 4 4 4 4 4 4 3 3 4 3 4 4 6 5 5 7 7 8 9 11 10 9 10 8 8 9 10 9 8 6
6 6 6 6 6 6 6 6 5 6 4 4 5 4 3 3 3 2 2 3 2 2 3 3 3 4 5 5 7 9 8 7 7 7 6 8 9 8 8 6 6 8 7 7
6 6 6 6 6 5 5 5 5 4 4 3 4 4 3 3 2 3 1 3 3 3 4 4 4 4 5 5 6 6 6 6 6 6 6 6 7 6 6 5 5 5 5 5
5 5 5 4 5 4 3 3 3 3 3 4 3 1 5 1 1 1 2 3 3 3 4 4 4 4 4 6 6 5 6 6 6 6 5 5 4 4 4 3 4 4 3 3
4 4 4 3 3 3 3 2 2 2 2 1 3 1 3 2 1 3 2 2 4 3 4 3 4 4 6 7 7 7 6 6 4 1 3 4 4 3 3 3 3 3 2 2
4 3 3 3 2 2 2 3 3 3 3 2 2 2 4 3 5 4 3 2 4 3 4 4 4 3 4 4 4 4 4 3 2 2 2 1 1 1 2 2 3 2 2 1
4 4 2 2 2 2 4 4 3 3 3 1 2 2 2 2 2 3 3 3 3 4 2 3 3 4 4 4 5 4 3 2 3 4 2 2 2 3 2 1 1 2 3 3
4 2 2 2 2 3 4 3 2 1 0 -0 -0 0 1 1 2 3 3 3 4 1 3 4 3 3 4 4 4 3 5 5 4 4 5 4 4 5 4 3 5 4 3 4
-0 1 -1 3 -1 3 2 0 -0 1 -1 -1 -0 -1 0 1 1 2 3 3 2 1 0 1 2 3 4 4 4 4 4 3 4 3 4 3 3 3 5 4 5 4 3 3
2 1 1 -0 1 -4 -2 -3 -2 -2 -0 0 -1 0 1 2 2 3 3 3 4 1 1 1 0 3 3 3 3 2 2 3 5 4 4 4 4 3 3 4 6 4 3 2
1 1 1 3 2 2 0 -2 1 -1 1 0 1 1 3 3 3 3 3 2 1 1 -1 -1 -1 2 3 4 5 5 5 6 5 5 5 4 3 3 4 4 4 3 3 2
2 2 3 -3 -4 -3 -2 0 -0 0 2 2 1 3 1 -2 2 3 2 -1 1 1 2 0 0 1 5 6 6 5 6 6 6 5 5 5 4 3 -0 -1 3 4 4 3

GFSNW_925_temp_123.txt.gz
Temp
9 10 11 12 12 12 11 9 9 10 9 7 4 5 11 12 12 12 12 12 13 13 13 13 13 13 13 12 12 12 12 9 8 10 11 10 10 10 9 9 10 7 8 8
10 11 11 12 12 12 11 8 8 10 9 7 4 11 11 12 12 12 13 13 13 13 13 13 13 13 12 12 12 12 12 9 6 10 10 10 11 10 10 9 8 8 8 12
10 12 12 12 12 12 11 7 8 8 6 6 9 11 12 12 12 12 13 13 13 13 13 13 13 13 12 12 12 12 11 8 9 10 13 10 10 10 9 10 7 9 12 14
11 12 13 13 13 12 11 5 8 8 7 9 11 11 11 12 12 12 12 12 13 13 13 13 12 13 12 11 12 11 10 9 7 8 8 9 10 11 9 9 11 10 14 11
11 12 13 13 13 13 11 8 8 6 7 9 12 10 12 12 13 12 12 12 13 12 12 12 11 12 11 11 10 10 8 8 8 5 8 8 8 9 9 10 11 11 11 11
10 11 12 12 13 13 9 7 7 8 7 8 9 10 12 13 13 12 12 12 12 12 11 11 11 10 10 11 9 8 8 7 7 8 8 7 8 9 9 9 8 10 9 12
10 10 11 11 11 11 10 7 6 8 10 8 10 12 12 12 12 12 12 11 11 12 10 10 9 8 7 7 8 8 7 7 6 7 7 9 13 10 10 10 10 9 10 11
9 9 9 10 11 10 9 7 7 6 9 8 10 11 11 11 10 11 11 11 10 9 9 9 9 9 10 8 8 6 7 8 7 6 4 9 12 13 10 11 12 10 11 11
8 8 8 8 9 10 10 8 7 6 8 9 11 10 11 9 9 9 10 9 9 8 7 8 11 11 12 11 9 5 6 7 8 6 8 10 13 12 12 12 11 13 10 11
8 8 8 8 8 8 9 8 7 7 6 7 9 9 10 8 7 8 8 10 9 8 7 9 8 8 10 11 11 8 7 6 8 8 8 9 10 11 12 14 14 14 11 10
7 8 8 8 8 8 8 7 7 7 5 6 8 9 9 8 7 9 8 8 7 6 8 8 8 7 9 10 10 8 7 6 7 7 7 8 10 10 12 12 12 13 12 11
8 8 8 8 8 8 8 8 7 6 4 6 7 8 8 8 8 7 7 8 7 7 6 5 6 8 7 8 10 7 9 9 8 8 9 10 9 10 10 9 9 9 10 11
8 7 7 7 8 7 7 7 7 6 2 3 4 6 7 8 8 8 8 6 7 6 5 6 6 8 6 8 6 9 9 8 8 10 11 10 11 10 9 10 9 10 9 8
7 7 7 7 7 7 6 7 6 6 3 2 5 7 6 6 6 7 7 7 6 5 5 6 6 7 7 7 8 7 9 9 8 7 11 10 11 11 10 9 9 8 8 7
7 7 7 7 7 6 6 6 5 5 5 3 4 5 4 5 5 5 5 5 5 4 5 3 5 4 6 5 5 5 8 8 7 9 9 8 10 10 9 8 8 8 7 8
6 6 7 6 6 6 6 5 5 4 4 1 5 4 3 4 4 4 3 3 3 3 3 3 3 3 5 5 5 7 7 7 7 8 7 7 7 7 6 6 7 7 6 6
6 6 6 6 6 6 6 6 5 5 4 4 5 5 2 3 3 1 1 2 1 2 3 3 3 4 4 4 5 8 7 6 6 6 5 6 6 6 6 5 5 5 4 5
5 5 5 6 6 5 5 4 5 5 4 3 5 5 3 3 2 3 1 3 3 3 3 3 3 4 3 5 5 6 6 5 5 5 4 4 5 4 3 3 2 2 3 3
5 5 5 4 4 5 4 4 3 3 3 4 3 2 4 2 1 2 2 2 3 2 3 3 4 4 5 6 5 6 6 6 5 5 3 3 2 2 1 1 2 2 2 2
4 4 4 4 3 3 3 2 2 2 2 1 3 1 2 2 1 2 2 2 4 3 4 2 4 4 6 6 6 6 6 5 4 1 5 5 4 4 3 2 2 1 2 1
4 3 4 3 3 2 2 3 3 3 3 3 2 2 4 2 5 5 3 2 3 2 3 4 4 4 4 5 5 5 5 4 4 2 2 1 1 1 2 3 4 2 2 2
3 3 3 2 2 2 3 4 3 3 3 1 3 2 2 3 2 2 4 2 3 3 1 2 2 4 4 4 5 5 4 3 2 3 3 5 5 4 3 2 3 4 4 3
4 2 2 2 2 3 3 0 4 2 -1 -1 1 1 1 1 1 1 3 3 3 1 1 2 2 3 4 4 3 3 4 4 4 3 4 4 4 4 3 3 4 4 3 4
-1 0 1 1 -2 2 -0 -1 -2 -1 -2 -1 -1 -1 0 0 0 1 3 2 1 1 2 1 -0 2 3 3 4 3 3 2 2 1 2 2 2 3 3 3 3 3 2 4
-1 -0 0 -3 -1 -5 -2 -2 -3 -0 -0 0 -0 0 -1 -2 0 2 3 3 4 4 -0 -0 -2 2 2 2 1 2 1 0 -1 0 0 2 2 2 3 4 4 3 2 2
1 1 1 1 -1 -5 -4 -1 2 -1 0 0 1 1 2 3 2 3 3 3 1 1 -2 -2 -3 1 -0 1 4 3 4 6 5 5 4 4 3 3 4 4 3 2 2 2
1 1 1 -2 -5 -2 -1 -0 -0 0 1 0 0 3 2 -2 1 2 2 -1 -1 -1 -1 -2 -1 1 4 4 5 5 5 4 4 4 4 3 4 3 2 0 2 2 2 2

GFSNW_925_temp_126.txt.gz
Temp
10 12 12 12 12 12 11 8 8 8 8 7 4 5 10 12 12 11 12 12 12 12 11 12 12 12 12 11 11 12 11 9 8 11 10 10 10 10 9 9 10 7 7 8
10 12 12 13 12 12 11 7 7 8 8 6 4 10 11 11 12 12 12 12 13 13 12 12 12 12 12 11 11 11 11 9 6 10 10 10 10 9 9 8 7 7 8 11
11 12 13 13 13 12 11 7 7 7 5 5 8 11 11 11 11 12 12 12 13 13 13 12 12 12 12 11 12 12 11 8 10 10 13 10 10 9 8 9 6 9 10 14
11 12 13 13 13 12 11 4 7 7 7 9 9 10 11 11 12 11 12 12 12 12 12 12 12 12 11 11 12 10 9 9 6 8 8 8 10 10 8 9 10 10 14 11
10 12 12 13 13 13 10 8 8 5 6 8 11 10 11 12 12 12 12 12 12 11 12 11 12 11 11 11 9 10 7 8 8 6 8 7 8 8 8 9 10 10 11 11
10 11 12 12 13 13 9 6 7 7 7 8 9 9 10 11 12 12 12 11 11 11 11 11 11 10 9 10 9 8 8 7 7 8 7 7 8 8 9 8 8 9 9 11
9 9 10 12 12 12 11 7 6 7 9 7 9 11 11 11 11 11 11 10 11 11 10 10 9 8 8 8 8 7 6 7 6 6 7 9 13 11 9 9 9 8 9 9
8 8 9 9 10 10 11 8 7 6 9 7 10 10 11 10 9 10 11 10 9 8 9 9 9 8 10 7 7 6 6 7 7 6 4 9 13 11 9 10 12 10 10 10
8 8 8 8 9 10 10 8 8 6 7 9 10 10 10 9 8 8 9 9 8 8 7 8 11 10 11 10 8 4 6 6 7 6 7 11 13 12 11 12 11 13 9 10
8 8 8 8 8 9 10 8 8 7 6 7 9 9 9 7 7 8 8 9 9 8 7 9 8 8 9 10 9 7 6 6 7 7 7 8 9 11 12 14 13 13 11 11
7 8 8 8 8 8 9 8 8 8 4 5 7 9 8 7 7 9 8 8 7 6 8 8 7 7 8 9 9 7 7 6 7 8 8 8 9 9 12 12 10 11 9 9
8 8 8 7 8 8 8 8 7 7 5 6 7 7 7 8 8 7 6 8 7 6 6 5 5 8 5 7 10 7 9 9 7 8 9 10 9 10 10 9 8 8 8 9
8 7 7 7 7 6 6 7 6 6 2 4 4 6 6 7 7 8 7 5 6 6 5 5 6 8 6 8 6 8 8 7 8 9 11 10 10 9 9 9 8 8 8 8
7 7 7 7 7 6 6 6 6 6 4 3 5 6 6 5 6 6 7 7 5 5 4 5 6 7 7 7 7 7 9 7 7 6 9 9 10 9 9 8 7 6 6 5
7 7 6 6 6 6 6 6 5 5 6 5 4 4 4 4 5 5 5 5 4 4 5 3 5 4 5 4 4 5 7 8 7 7 7 7 7 8 7 6 6 6 5 4
6 7 6 6 6 6 5 5 5 4 5 2 5 3 3 3 4 4 3 3 2 3 4 4 3 3 6 5 5 7 7 7 7 8 7 6 5 5 5 4 4 4 4 3
6 6 6 6 6 5 5 5 5 5 4 4 5 4 2 3 2 1 1 2 1 2 3 3 3 4 4 4 5 8 7 7 6 6 5 6 6 5 5 4 3 3 3 3
5 5 5 5 5 5 5 5 4 5 4 3 5 6 2 2 2 2 0 2 2 2 2 3 3 3 3 5 6 6 6 6 6 6 5 5 4 3 3 3 2 2 3 2
5 4 4 4 4 4 3 4 4 4 3 4 4 5 2 1 1 1 1 1 3 2 3 3 4 4 4 6 6 7 7 6 5 3 3 3 2 2 2 2 3 3 4 4
4 4 4 3 3 3 3 2 2 2 2 2 3 2 2 1 0 2 1 1 1 1 2 2 3 4 5 5 5 5 5 5 4 1 5 5 4 4 4 3 3 1 2 2
3 3 2 3 3 2 3 3 3 3 3 3 2 2 3 2 4 4 2 4 3 3 2 3 3 3 3 3 4 5 5 5 3 3 2 2 1 1 2 2 3 3 3 2
3 4 2 2 2 2 3 2 3 3 4 2 2 2 2 2 2 4 3 4 3 4 -0 2 1 2 3 3 5 5 3 4 2 4 2 2 2 2 1 1 2 2 3 3
4 2 1 2 0 2 3 -2 4 3 2 0 1 2 1 1 1 2 3 4 4 0 1 0 1 1 3 2 3 2 3 3 2 2 3 3 2 3 3 3 4 3 3 3
-1 -1 1 0 -4 -1 -1 -2 -2 -1 -1 -2 0 0 -0 0 1 2 3 3 1 2 1 -0 -2 2 2 3 3 2 3 2 1 -0 1 1 1 2 2 2 2 2 2 3
-2 1 -1 -2 -2 -6 -3 -5 -2 0 -0 1 1 1 -0 -0 1 2 3 3 3 3 -0 -1 -3 1 1 -0 -0 0 0 -0 -0 1 -1 -1 0 -0 1 3 3 3 2 2
0 -1 0 0 -4 -7 -2 -2 -1 -2 0 -0 0 2 3 3 1 2 1 2 3 1 -2 -2 -3 1 -0 -1 0 2 4 5 4 4 3 3 2 2 2 2 2 2 2 1
1 0 0 -2 -5 -4 -3 -2 -0 0 0 1 1 2 1 -4 0 2 -2 -1 -1 -1 -2 -3 -2 -2 2 4 4 4 3 3 3 3 3 2 2 2 1 0 2 2 1 1

GFSNW_925_temp_132.txt.gz
Temp
12 12 12 12 12 11 10 10 14 9 9 13 12 12 12 12 12 12 13 14 14 15 14 14 15 15 14 14 14 14 13 15 14 14 12 12 13 14 16 17 15 14 15 18
12 12 13 12 12 11 11 13 12 9 8 14 12 12 12 12 13 13 13 13 14 13 14 15 14 14 12 13 14 14 14 14 15 14 13 12 13 13 14 13 14 14 17 20
11 13 13 12 11 11 11 13 14 14 12 10 14 13 13 13 12 12 13 13 13 14 14 13 14 13 12 12 13 11 13 14 15 18 16 15 13 13 13 15 14 17 16 19
12 12 13 13 11 11 10 11 11 9 14 14 13 13 12 13 13 12 12 13 13 14 14 14 14 13 12 12 12 12 13 13 11 13 13 13 14 15 13 12 15 15 19 18
12 12 12 13 13 11 9 14 13 10 11 10 13 12 13 13 12 13 13 13 13 13 14 15 15 14 13 14 11 13 11 13 11 10 12 11 11 13 13 13 14 14 15 15
11 12 12 13 13 12 10 6 7 13 8 11 13 13 13 13 13 12 12 13 13 13 13 12 12 12 12 13 13 13 12 12 11 13 11 12 14 15 13 13 13 13 13 16
10 11 12 12 12 13 11 8 8 14 13 12 13 12 12 12 12 13 12 12 13 12 11 10 11 11 10 11 11 12 11 12 12 12 13 15 14 12 14 13 14 13 13 14
8 9 10 11 12 11 11 8 8 12 14 11 11 11 12 11 11 11 12 11 11 10 11 13 13 12 11 9 8 10 10 13 13 12 12 15 14 11 12 13 15 13 13 14
8 8 9 10 11 11 10 9 8 9 14 14 12 13 12 13 13 11 10 9 8 10 12 13 14 15 13 12 9 8 9 10 13 10 11 16 16 13 13 13 15 13 12 13
7 8 8 9 10 10 10 8 8 8 12 11 11 13 13 11 11 12 10 10 10 9 12 13 13 13 11 13 12 9 9 9 11 12 11 14 13 12 12 15 14 12 12 11
7 8 8 9 9 9 9 8 8 7 10 10 8 10 10 9 10 13 10 11 9 10 12 12 12 12 12 11 11 10 11 10 10 11 10 11 11 11 13 12 11 10 10 10
8 8 8 8 8 9 9 8 7 7 7 8 6 7 7 8 8 10 8 10 10 11 11 10 10 11 10 12 14 9 12 14 13 13 14 13 11 12 11 10 9 9 8 8
8 8 8 8 8 7 7 7 7 6 6 8 7 7 6 6 6 7 11 8 8 8 8 10 10 11 11 12 11 12 11 11 12 12 12 12 13 12 10 9 8 8 7 7
8 8 8 8 7 7 6 6 6 6 5 7 8 5 5 5 5 5 6 7 6 6 7 9 10 10 10 11 11 10 11 10 11 12 12 11 10 10 8 8 8 7 7 7
8 7 7 7 7 7 6 5 5 5 7 8 7 4 3 4 4 5 5 5 6 7 8 8 9 8 8 8 7 9 10 12 12 13 10 11 11 9 7 7 7 7 6 6
7 7 7 7 6 6 5 6 5 5 5 5 8 3 3 3 3 3 3 4 5 6 8 7 7 5 8 8 9 10 9 9 10 11 9 9 8 7 7 7 7 6 6 6
7 7 6 6 5 5 5 6 5 5 5 6 6 6 3 2 2 2 3 2 4 5 6 6 6 6 6 7 9 9 8 8 8 8 8 8 8 8 7 7 6 5 5 5
6 6 5 5 4 5 4 4 5 5 5 4 5 6 5 2 4 4 2 4 4 4 5 4 5 5 5 6 8 7 8 7 7 7 7 8 6 6 7 5 5 5 6 6
5 5 5 5 4 4 3 3 4 5 4 4 5 6 6 2 3 3 3 3 4 3 4 5 5 6 5 7 7 7 7 7 7 6 7 7 6 7 6 6 6 6 6 6
4 4 4 3 2 3 3 3 4 3 3 3 4 3 5 4 3 3 4 3 4 5 5 3 4 6 7 6 7 7 7 7 6 3 5 6 4 5 6 5 5 5 5 5
3 3 3 2 2 3 3 3 3 4 4 3 3 4 5 3 5 6 4 5 5 5 5 5 5 5 5 4 5 6 6 7 6 6 6 5 4 3 4 4 4 4 4 4
3 3 2 2 3 3 3 2 2 3 4 3 3 3 3 3 3 5 3 5 4 5 3 4 4 6 4 3 3 5 5 5 5 4 4 4 4 4 4 3 3 2 2 2
4 2 2 3 1 2 2 1 2 3 3 3 2 3 3 2 2 4 4 4 5 3 4 4 5 4 5 5 5 5 5 4 4 3 3 2 2 2 2 2 3 3 2 3
2 2 2 2 1 1 2 2 2 3 2 2 2 2 3 2 3 4 4 4 3 3 4 4 5 5 5 4 4 3 4 4 3 1 1 1 1 2 2 1 1 1 1 2
2 1 3 -1 0 -2 -1 -1 -0 0 1 2 2 2 2 2 3 3 4 3 3 4 4 4 4 4 4 3 3 3 3 2 0 1 1 1 0 0 2 2 2 2 2 2
0 -1 -1 -1 -0 -1 -1 0 0 0 1 1 2 3 3 3 3 3 3 4 3 4 3 4 3 2 3 3 3 3 4 4 3 2 2 1 1 1 2 1 1 1 1 1
-1 0 0 -0 -1 0 0 0 1 0 2 3 3 3 2 -0 2 3 4 3 4 3 3 3 2 4 5 4 4 3 2 2 3 3 2 2 1 0 -1 -0 1 1 1 1

GFSNW_925_temp_135.txt.gz
Temp
12 12 12 12 12 11 11 13 16 10 9 16 17 15 15 13 14 15 15 16 16 18 17 18 18 18 17 16 16 17 16 18 16 17 14 15 16 18 19 18 18 18 18 19
11 12 12 12 12 11 11 16 16 11 10 16 15 14 14 15 15 15 15 16 16 16 17 17 17 16 15 15 16 16 17 17 17 16 15 14 15 16 17 18 17 17 19 22
11 11 12 12 11 11 10 16 15 16 16 16 18 16 15 14 14 15 15 15 16 16 16 16 16 16 14 14 15 12 14 17 17 19 17 17 15 16 16 16 16 18 19 21
12 11 12 12 11 11 10 15 15 13 16 16 16 17 16 15 15 15 15 15 16 17 17 16 16 16 14 14 12 14 15 15 14 15 16 16 16 17 16 15 16 17 19 20
12 12 12 12 12 11 13 17 17 14 15 15 16 14 16 16 15 16 15 16 16 16 17 17 17 16 16 16 14 15 14 14 14 12 16 15 14 16 16 16 16 16 17 17
11 12 12 12 12 12 14 11 11 16 11 16 17 17 16 15 15 14 15 15 16 15 16 15 15 15 15 16 16 15 15 14 13 15 14 15 15 16 16 15 16 16 15 18
10 11 12 12 12 13 11 10 13 17 16 16 17 15 15 15 15 15 14 14 15 13 13 13 14 14 14 14 14 15 14 14 14 13 15 14 16 15 16 16 16 16 16 16
9 10 11 12 12 12 11 8 12 16 17 16 14 14 15 14 13 14 14 14 13 14 14 14 14 14 13 13 12 12 13 15 14 13 15 18 17 14 14 15 15 15 15 15
8 9 9 10 11 11 10 9 9 13 17 17 16 15 15 16 16 13 13 11 11 12 14 15 15 17 16 13 10 10 11 12 14 13 13 17 16 14 14 15 15 13 13 13
7 8 9 9 10 10 10 9 9 10 15 14 14 16 16 15 15 16 13 12 11 12 14 15 16 17 14 15 14 10 11 12 12 13 13 15 15 14 14 15 14 13 13 12
7 8 8 9 9 9 9 8 9 9 13 13 11 12 13 13 14 16 12 12 11 12 13 15 16 14 15 14 15 13 13 13 12 14 13 12 14 13 14 13 13 12 11 10
8 8 8 8 8 9 9 9 8 8 9 10 7 7 7 8 8 13 12 13 13 15 14 14 14 14 13 15 16 13 13 15 15 15 15 14 14 14 12 12 11 10 9 9
8 8 8 8 8 8 8 7 7 6 9 10 9 9 5 6 7 7 12 11 11 11 11 13 14 13 14 15 15 15 14 15 13 13 16 14 14 13 11 11 10 9 9 9
8 8 8 7 7 7 7 6 6 6 8 9 10 5 6 5 5 5 7 8 8 9 10 11 12 12 13 14 13 13 14 12 13 13 14 13 13 11 10 9 9 9 9 8
8 8 8 7 7 7 6 6 6 6 8 9 10 6 3 4 4 5 6 7 9 10 10 10 10 11 10 12 9 11 11 13 13 14 14 14 12 10 9 9 9 8 8 8
8 8 8 7 7 7 6 8 5 5 5 7 9 5 5 4 4 5 6 7 8 9 10 10 10 8 9 10 11 13 12 11 12 13 12 11 10 10 9 9 9 8 8 8
8 8 7 6 6 6 6 7 5 5 5 7 7 8 4 4 4 4 5 5 6 8 8 8 9 8 8 8 10 13 11 11 11 10 10 9 9 10 9 8 8 7 8 8
8 6 6 5 5 5 5 4 5 5 5 6 6 7 5 3 6 6 4 6 6 6 7 6 6 7 6 6 10 11 11 10 9 9 10 10 9 8 9 8 8 7 7 8
6 5 5 4 5 4 4 4 4 5 5 5 5 6 8 4 4 5 5 5 6 4 5 6 6 7 6 8 10 10 9 8 9 8 9 8 8 8 7 7 7 7 7 7
5 4 4 3 3 3 4 4 5 5 5 4 4 5 6 5 5 5 5 5 6 5 6 4 5 7 9 9 9 9 9 9 8 5 6 7 5 6 7 7 7 7 7 6
3 1 2 2 2 3 4 3 4 4 4 4 4 5 6 5 6 7 6 6 5 5 6 5 6 7 8 9 8 8 9 8 8 8 7 7 6 5 5 6 6 5 5 4
2 2 1 2 2 2 3 4 4 4 5 5 4 5 6 4 5 6 4 6 5 6 5 5 6 8 6 6 7 8 8 8 7 7 6 5 5 5 5 5 4 3 3 2
1 0 1 2 2 3 3 3 3 4 4 4 4 3 4 3 3 5 4 5 6 5 4 5 7 7 6 6 5 7 7 7 6 5 5 4 4 4 4 4 4 4 4 4
1 2 2 2 2 3 4 4 5 4 5 4 4 3 4 4 3 5 5 6 4 5 5 5 7 7 6 6 6 5 6 6 5 3 3 2 3 3 3 3 3 3 3 3
2 2 2 2 3 1 1 1 2 1 4 3 3 3 4 3 4 4 5 4 4 5 5 7 6 5 6 6 6 6 5 5 3 3 2 1 1 1 2 3 3 3 3 3
1 0 1 1 1 1 0 1 2 2 3 3 3 3 4 4 4 4 4 5 5 6 5 6 6 5 5 5 5 5 5 6 7 5 3 2 2 2 2 3 2 2 2 2
1 1 1 1 1 2 2 2 3 3 3 4 3 3 4 2 3 4 5 5 6 5 5 5 6 5 6 7 7 6 6 6 5 4 4 3 3 2 1 0 1 1 1 1

GFSNW_925_temp_138.txt.gz
Temp
12 12 12 12 12 12 12 13 14 11 11 13 15 13 15 12 15 16 16 16 16 18 18 18 18 17 15 16 16 17 15 16 11 15 14 14 14 16 16 13 15 13 13 11
11 12 12 12 11 11 11 14 14 12 12 14 13 15 14 15 15 15 16 16 16 16 17 16 17 15 15 15 15 13 15 15 12 14 13 14 13 15 16 16 14 13 12 14
12 12 12 12 11 10 10 13 13 14 13 15 16 15 15 14 14 15 15 16 16 16 16 16 16 14 14 14 14 13 13 15 14 13 15 15 14 14 14 14 9 13 13 17
10 11 12 12 11 11 10 14 13 13 15 15 16 16 16 15 14 15 15 15 16 17 16 16 16 15 13 13 12 14 14 13 13 13 13 14 14 14 14 13 13 13 17 16
10 10 11 12 12 12 11 13 15 13 15 15 16 14 16 16 15 15 15 15 16 16 16 15 16 15 15 15 13 14 13 12 12 8 13 14 13 13 14 14 14 14 14 14
9 10 11 11 12 12 14 12 13 13 13 16 16 15 15 16 15 14 15 16 15 15 15 15 14 14 14 15 14 13 13 12 10 11 14 13 11 13 13 14 14 15 13 14
8 9 10 11 12 12 11 11 12 14 15 15 16 15 15 15 15 15 14 14 15 12 13 14 14 14 13 14 14 13 13 13 11 8 12 10 14 13 13 14 16 14 15 15
8 9 9 10 11 11 11 9 10 13 15 15 15 15 15 14 13 14 14 13 12 13 13 13 13 12 12 12 12 12 12 12 9 8 9 13 14 14 14 14 14 14 14 13
7 8 9 9 10 10 10 9 9 10 12 14 16 14 15 14 13 12 12 11 12 12 12 12 13 13 14 10 9 10 10 10 10 11 10 12 14 13 14 14 11 12 12 12
7 7 8 9 9 9 9 9 9 9 11 13 13 14 13 15 14 13 12 10 10 11 11 11 12 13 14 12 11 8 8 9 9 9 10 12 13 13 13 13 11 11 12 11
7 7 8 8 9 9 9 9 9 9 10 11 10 11 12 12 12 13 11 10 10 9 11 12 13 12 12 13 13 10 9 9 8 10 10 10 12 12 12 11 10 10 10 10
8 7 8 8 8 9 9 9 8 8 8 8 8 7 7 7 8 10 11 11 12 12 11 11 11 11 11 12 13 13 11 12 11 11 11 12 12 12 10 10 10 9 9 9
8 8 7 8 7 8 8 7 8 7 7 8 7 7 6 7 7 7 10 10 10 10 8 9 10 10 11 11 11 12 12 14 11 12 14 11 11 10 9 9 8 8 8 8
8 8 8 8 7 7 7 7 7 7 7 7 7 6 6 5 6 6 7 8 8 9 8 9 9 10 11 11 11 10 11 11 11 11 12 11 12 9 8 8 8 8 8 8
8 8 8 8 7 7 7 6 6 6 6 7 7 6 4 5 5 6 6 7 8 8 7 6 8 9 9 9 8 8 10 10 10 10 11 11 9 8 8 8 8 7 7 7
8 8 8 7 7 7 7 6 5 5 5 5 6 5 5 5 5 6 6 7 6 6 7 7 8 7 7 7 8 11 12 11 10 10 9 8 8 7 8 7 7 8 7 7
8 8 7 7 7 6 7 7 5 6 6 5 5 5 3 4 4 4 4 5 5 5 6 6 6 6 5 6 7 11 10 11 9 9 8 7 7 7 7 7 8 7 7 7
8 8 8 6 5 5 5 5 5 6 6 5 4 4 4 3 4 4 4 5 4 5 5 5 5 5 5 6 7 9 10 9 8 8 9 8 7 7 7 7 7 6 5 5
8 7 5 5 5 4 4 4 5 5 6 5 4 5 6 3 3 4 3 4 5 3 4 5 5 5 5 7 7 8 8 7 7 7 6 6 6 6 7 6 5 5 4 4
6 5 4 3 3 3 4 4 4 4 4 3 4 5 5 4 4 4 4 4 5 5 5 3 4 5 7 7 7 8 7 7 6 3 4 6 5 5 5 5 4 4 3 4
4 1 1 2 2 2 3 3 3 3 3 3 3 4 4 4 5 5 5 5 3 4 3 3 5 5 6 7 7 7 6 5 5 5 6 6 6 4 3 3 3 4 4 3
3 2 1 1 1 2 3 3 3 3 4 3 4 3 4 3 3 5 3 4 4 4 2 4 5 3 4 4 6 6 5 5 5 6 5 5 5 5 4 3 3 4 4 4
3 1 1 2 2 3 3 2 2 2 3 3 3 3 3 2 3 4 4 4 4 3 4 5 3 4 5 4 4 5 6 6 6 5 5 5 4 5 4 3 4 3 3 3
1 2 2 3 2 3 3 2 2 2 2 3 3 2 3 3 3 4 4 4 3 4 4 3 2 3 3 4 3 4 4 5 4 1 3 3 3 3 5 4 3 2 2 2
1 2 3 2 1 1 -0 -1 0 0 2 2 2 2 2 3 3 4 4 3 4 4 3 3 1 2 3 4 4 4 3 2 -1 3 2 2 3 2 2 2 2 2 2 2
1 0 1 1 1 0 0 0 2 1 2 2 2 3 3 4 3 3 4 4 4 3 2 1 1 3 4 4 4 3 4 4 4 4 4 3 2 0 1 2 2 2 1 1
1 1 1 1 1 2 1 1 2 2 2 3 3 3 3 -0 3 3 3 3 2 2 1 0 2 3 3 3 4 5 5 4 4 4 4 3 3 2 1 -0 1 1 1 1

GFSNW_925_temp_144.txt.gz
Temp
10 11 11 12 11 11 11 9 9 11 12 9 6 9 12 13 13 14 14 14 14 15 15 14 14 14 14 13 14 14 13 11 8 13 12 13 13 13 12 11 14 10 9 11
10 11 11 11 11 11 10 8 8 11 11 8 7 12 12 13 14 13 14 14 14 15 14 14 13 12 12 12 12 13 14 12 8 12 12 12 12 12 12 11 9 10 10 13
9 10 11 11 11 11 10 8 9 9 7 7 10 12 12 12 13 13 14 14 14 15 14 13 13 12 12 12 12 13 12 11 12 12 14 11 12 11 11 11 7 10 10 14
8 9 10 11 12 11 11 6 9 9 11 11 12 12 13 12 13 13 13 14 14 14 14 14 13 12 12 12 12 12 11 11 10 11 11 12 12 12 11 10 11 11 12 11
8 9 10 10 11 12 11 9 10 7 9 11 14 12 13 13 13 13 13 13 14 14 14 14 12 12 11 12 11 12 10 11 10 7 11 10 10 10 10 10 11 10 11 10
7 8 10 10 11 11 10 9 9 9 10 11 11 12 13 13 12 13 13 14 13 13 12 12 12 11 10 11 10 10 10 8 7 10 9 9 10 10 10 10 10 12 11 13
7 8 9 10 11 11 11 9 8 9 12 10 12 13 14 13 13 13 13 13 13 12 12 12 11 11 11 10 10 9 8 8 6 6 9 9 12 12 12 10 11 10 11 12
7 7 8 9 10 10 11 9 8 8 11 11 13 13 12 12 12 12 12 11 10 9 11 10 10 9 11 9 8 9 8 8 7 7 6 10 13 11 11 11 12 10 10 10
7 7 8 9 10 10 10 9 9 7 9 10 12 12 12 10 10 10 10 10 10 10 9 9 12 11 11 10 9 7 8 7 8 7 8 11 14 13 13 13 11 10 10 9
8 7 7 8 9 10 10 9 9 8 8 8 10 10 11 10 9 9 9 9 10 9 7 10 9 10 10 11 9 7 8 7 8 8 7 9 10 12 12 13 13 10 9 8
8 8 7 7 8 9 9 9 9 9 6 7 8 8 10 9 9 9 8 9 8 7 9 8 9 8 10 10 8 7 7 6 6 7 8 9 10 11 12 11 9 9 8 8
8 8 7 7 7 8 9 9 9 9 7 7 7 7 7 7 7 8 7 9 8 8 7 7 7 9 7 9 11 8 9 9 8 8 10 11 10 12 10 8 8 8 7 7
8 8 8 7 7 8 8 9 8 8 5 5 5 5 6 6 7 7 8 6 8 7 6 7 7 9 7 9 8 10 9 8 9 10 11 9 10 9 9 9 8 7 7 6
8 8 8 7 8 7 8 8 8 8 5 6 6 5 6 6 6 6 7 7 7 6 5 7 7 8 8 8 9 9 10 9 9 8 9 10 9 8 7 6 6 6 6 6
9 8 8 8 7 8 7 7 7 7 7 7 5 4 5 5 5 6 6 7 5 5 6 3 6 5 6 6 6 6 9 9 9 12 10 10 10 8 6 6 6 5 5 5
9 8 8 8 7 7 7 5 6 6 6 3 4 3 4 4 5 5 5 5 3 3 5 4 4 5 6 5 5 8 9 9 9 11 9 8 7 6 6 6 5 5 5 6
9 8 8 7 7 7 7 6 7 6 6 4 3 2 2 4 4 3 3 3 2 3 4 3 4 4 4 4 5 10 9 8 8 7 6 7 7 6 5 5 6 6 6 6
8 8 8 8 7 6 5 6 6 6 6 4 1 1 1 3 3 3 2 2 2 3 3 3 4 4 4 5 6 7 7 6 7 6 7 7 6 5 4 5 5 5 5 4
8 8 7 5 5 4 5 5 5 6 6 3 -0 1 3 2 2 2 3 3 4 2 4 4 5 5 5 6 6 6 6 6 6 6 5 5 5 4 4 4 5 5 4 3
7 6 5 4 4 4 5 4 4 3 3 2 1 0 2 1 1 2 2 2 3 2 3 3 4 5 6 6 6 5 5 6 4 2 3 3 3 3 4 5 4 3 3 3
6 3 2 3 3 4 3 3 3 3 3 3 1 1 2 2 2 3 3 2 2 3 2 4 3 3 5 4 4 4 4 4 4 5 4 4 3 3 3 3 4 3 3 2
5 3 2 2 1 2 3 3 2 2 2 1 1 2 2 1 3 3 3 4 3 2 0 3 3 2 4 3 3 3 3 3 4 4 3 4 4 4 4 4 3 4 4 4
5 2 1 2 2 3 3 1 2 -0 -1 -1 1 3 1 1 2 3 3 3 3 1 3 3 1 3 3 2 2 3 3 4 4 4 5 5 5 5 4 3 4 4 3 3
3 3 2 4 1 1 0 0 -0 -1 -1 1 -1 0 1 1 2 3 2 3 2 3 3 1 -1 2 2 2 2 3 3 4 4 2 4 4 4 3 3 3 3 3 1 2
2 2 4 1 -1 -2 -4 -5 -1 -1 1 1 0 0 0 0 1 3 3 2 3 3 1 0 -1 2 2 2 2 2 3 2 -0 3 2 2 1 0 1 3 3 2 1 1
0 0 -1 -0 -2 -2 -5 -2 1 -1 1 -0 0 1 1 1 3 2 3 3 1 1 -1 -0 -0 1 2 2 2 2 3 3 3 4 4 3 2 2 2 3 2 2 1 0
0 -2 -1 -1 -2 -1 -1 1 0 0 2 1 1 0 2 1 -1 0 0 1 1 1 -0 -1 0 0 0 0 1 2 2 2 3 3 3 2 3 2 0 -3 1 1 1 -0

GFSNW_925_temp_147.txt.gz
Temp
10 11 11 11 11 11 12 9 9 11 12 8 5 8 12 13 12 12 14 13 14 15 14 13 13 13 13 11 13 13 12 10 8 13 12 12 12 12 11 11 13 9 9 11
9 11 11 11 11 11 10 8 8 12 11 8 6 11 12 12 12 12 13 13 13 14 14 14 13 12 12 11 12 13 13 11 8 11 11 11 11 11 11 9 8 9 11 13
8 10 11 11 11 11 10 7 9 9 6 6 10 12 12 12 12 13 13 13 14 14 14 12 12 12 12 12 12 12 12 10 12 12 14 11 11 11 10 11 7 10 9 12
7 9 10 11 11 11 10 5 9 8 10 10 11 12 12 12 13 12 12 13 13 14 14 13 12 11 11 11 11 11 11 12 9 10 10 11 12 12 10 10 10 11 12 10
7 9 10 11 11 12 11 9 9 6 8 10 13 11 12 12 12 13 13 13 13 13 13 13 13 11 11 12 10 11 8 10 10 8 10 10 9 9 9 9 11 10 11 10
7 7 9 10 11 12 10 8 8 8 9 9 11 11 12 12 12 12 13 13 12 13 13 12 11 10 9 11 10 9 9 8 7 10 8 9 10 10 10 10 9 11 10 13
7 7 8 10 10 11 11 9 8 9 11 9 11 12 13 12 13 12 12 12 13 12 11 10 10 9 9 9 7 8 7 8 6 6 9 9 12 10 11 9 10 9 10 11
7 7 7 8 10 10 11 10 8 7 10 9 12 12 12 11 11 11 11 10 9 8 10 9 10 9 11 9 7 8 7 7 7 7 6 9 14 11 10 11 12 10 10 10
8 7 7 8 9 9 9 9 9 7 9 10 11 11 11 10 10 10 10 9 9 9 8 9 12 11 11 10 9 7 7 7 8 7 8 11 14 12 12 13 11 11 9 8
8 8 7 7 8 8 9 9 9 8 8 7 10 10 10 8 8 8 9 9 10 9 7 10 9 10 10 11 9 7 7 7 7 7 7 9 10 12 12 14 14 10 9 7
8 8 8 7 7 8 8 9 8 8 6 7 8 9 9 8 8 9 8 9 7 7 9 8 8 8 8 9 8 7 8 7 7 7 8 9 10 11 12 11 9 9 8 7
8 8 8 8 7 7 8 8 8 8 7 6 6 7 7 7 8 7 6 9 7 7 7 6 6 9 6 8 10 7 9 9 8 8 9 10 9 10 10 8 9 8 8 7
8 8 8 8 8 7 8 8 8 8 4 5 5 5 6 7 7 7 8 6 7 6 6 6 7 9 6 8 7 9 8 7 8 9 11 9 9 9 8 7 8 7 7 6
9 8 8 8 8 7 7 8 8 8 5 6 6 5 5 5 6 6 7 7 6 5 4 6 6 8 7 7 8 8 10 7 8 7 9 8 8 7 8 7 7 6 5 6
9 8 8 8 8 7 8 7 7 8 7 6 5 4 4 5 5 5 6 6 5 4 5 3 6 5 6 4 5 6 8 9 8 9 10 10 9 10 7 6 5 5 5 5
8 9 8 8 7 7 7 5 6 6 7 2 4 3 3 4 5 5 4 4 3 3 4 4 3 4 5 5 5 7 9 9 9 10 9 7 7 6 6 6 5 5 5 6
8 8 8 8 7 7 7 6 7 6 6 4 3 2 2 3 4 3 3 3 2 3 3 3 3 4 4 4 4 8 8 8 7 7 6 7 7 7 5 6 5 6 5 5
8 8 7 8 7 6 6 7 7 6 6 3 1 1 1 3 2 3 2 3 2 2 3 2 3 3 2 4 5 6 7 6 6 6 6 6 6 5 4 4 4 4 4 4
7 7 7 6 5 5 5 6 6 6 6 4 -0 2 3 1 1 2 2 2 3 1 3 3 4 4 5 6 6 6 6 5 5 6 6 6 6 4 4 4 4 4 4 4
7 7 6 4 4 5 4 4 4 3 4 2 3 1 2 2 1 2 2 1 2 3 3 2 4 5 5 5 4 3 4 4 4 2 4 4 3 3 4 4 4 4 4 3
6 3 2 3 3 4 4 4 4 3 4 3 3 1 2 1 3 3 2 1 1 -0 2 2 4 3 3 3 2 2 3 3 3 4 5 4 3 2 3 3 4 4 4 3
4 4 3 3 2 2 4 4 3 3 4 2 2 2 2 1 2 3 3 3 2 3 0 3 3 2 3 1 2 2 2 4 4 4 3 3 4 4 4 4 4 4 4 4
4 2 1 2 2 3 4 2 2 2 -1 0 2 3 2 1 3 3 2 3 2 0 3 4 0 1 2 1 1 2 3 3 3 3 4 5 5 5 4 3 4 3 3 3
3 3 3 4 2 2 2 1 0 -0 -1 1 -0 0 1 1 1 1 1 3 2 1 3 1 -2 1 1 1 1 2 4 4 4 1 3 3 3 3 3 3 3 2 1 2
3 2 5 3 -0 -2 -5 -4 -1 -1 2 1 -0 -1 -0 1 2 3 2 1 4 4 1 -1 -2 1 1 2 2 2 2 1 -2 2 2 2 2 0 1 3 3 2 1 1
1 1 1 0 -2 -1 -1 -1 1 -0 2 -0 0 1 1 2 1 1 3 0 0 0 -2 -2 -1 0 0 1 1 2 2 2 2 3 3 3 3 2 1 2 2 2 2 1
0 -2 -2 -2 -2 -1 -0 2 2 1 2 0 0 0 2 -0 -1 -0 -1 -1 -0 -1 -2 -3 -1 0 1 0 1 1 2 1 2 2 2 2 2 1 -0 -3 1 1 1 0